Warning: Javascript must be enabled to use all the features on this page!


Page Loading - Please Wait...

Click to hideNews Bulletins

Streamflow Measurements for the Nation


USGS 11447903 GEORGIANA SLOUGH NR SACRAMENTO R


Sacramento County, California
Hydrologic Unit Code 18040012
Latitude  38°14'14", Longitude 121°31'03" NAD83
Gage datum 0 feet above NAVD88
Output formats
HTML table with channel data
HTML table without channel data
Tab-separated data with channel data
Tab-separated data without channel data
Graph of data
Reselect output format
Meas.
Number
  Date       Time Time
Datum
Measurement
Used?
  Who Measuring
Agency
Stream
flow
(ft3/s)
Gage
Height
(ft)
GH
Change
(ft)
Meas.
Duration
(hr)
Meas.
Rated
  Control Flow
Adjust.
Code
 
14342021-10-27 09:11:04PSTYesACONLEN/HFUJUSGS73106.51 Poor NONE
14332021-10-27 09:07:22PSTYesACONLEN/HFUJUSGS71706.51 Poor NONE
14322021-10-27 09:02:01PSTYesACONLEN/HFUJUSGS72306.48 Poor NONE
14312021-10-27 08:58:32PSTYesACONLEN/HFUJUSGS69406.48 Poor NONE
14302021-10-27 08:54:50PSTYesACONLEN/HFUJUSGS71906.46 Poor NONE
14292021-10-27 08:51:09PSTYesACONLEN/HFUJUSGS73506.45 Poor NONE
14282021-10-27 08:47:34PSTYesACONLEN/HFUJUSGS68406.43 Poor NONE
14272021-10-27 08:43:36PSTYesACONLEN/HFUJUSGS68506.43 Poor NONE
14262021-09-02 14:12:30PSTYesACONLEN/BGRIUSGS21505.27 Poor NONE
14252021-09-02 14:09:44PSTYesACONLEN/BGRIUSGS21405.26 Poor NONE
14242021-09-02 14:07:05PSTYesACONLEN/BGRIUSGS21005.25 Poor NONE
14232021-09-02 14:04:25PSTYesACONLEN/BGRIUSGS22805.24 Poor NONE
14222021-09-02 14:02PSTYesACONLEN/BGRIUSGS20105.22 Poor NONE
14212021-09-02 13:59:45PSTYesACONLEN/BGRIUSGS21505.21 Poor NONE
14202021-08-31 13:57:32PSTYesACONLEN/NVANUSGS14905.68 Poor NONE
14192021-08-31 13:54:30PSTYesACONLEN/NVANUSGS16005.68 Poor NONE
14182021-08-31 13:51:14PSTYesACONLEN/NVANUSGS16105.67 Poor NONE
14172021-08-31 13:47:40PSTYesACONLEN/NVANUSGS15105.66 Poor NONE
14162021-08-31 13:44:12PSTYesACONLEN/NVANUSGS15205.65 Poor NONE
14152021-08-31 13:40:41PSTYesACONLEN/NVANUSGS15705.66 Poor NONE
14142021-07-07 11:14:59PSTYesACONLEN/BGRIUSGS24703.84 Poor NONE
14132021-07-07 11:12:28PSTYesACONLEN/BGRIUSGS24603.85 Poor NONE
14122021-07-07 11:09:49PSTYesACONLEN/BGRIUSGS26103.85 Poor NONE
14112021-07-07 11:06:17PSTYesACONLEN/BGRIUSGS26203.88 Poor NONE
14102021-07-07 11:03:14PSTYesACONLEN/BGRIUSGS24803.89 Poor NONE
14092021-07-07 10:59:58PSTYesACONLEN/BGRIUSGS23403.91 Poor NONE
14082021-04-27 11:21:52PSTYesACONLEN/BGRIUSGS24103.82 Poor NONE
14072021-04-27 11:19:40PSTYesACONLEN/BGRIUSGS24303.84 Poor NONE
14062021-04-27 11:17:19PSTYesACONLEN/BGRIUSGS23003.86 Poor NONE
14052021-04-27 11:13:37PSTYesACONLEN/BGRIUSGS24203.88 Poor NONE
14042021-04-27 11:11:07PSTYesACONLEN/BGRIUSGS25003.90 Poor NONE
14032021-04-27 11:08:34PSTYesACONLEN/BGRIUSGS23903.91 Poor NONE
14022021-02-03 14:41:23PSTYesJEH/EBDUSGS25804.52 Poor NONE
14012021-02-03 14:37:55PSTYesJEH/EBDUSGS29204.54 Poor NONE
14002021-02-03 14:34:19PSTYesJEH/EBDUSGS29704.56 Poor NONE
13992021-02-03 14:30:43PSTYesJEH/EBDUSGS28904.57 Poor NONE
13982021-02-03 14:27:11PSTYesJEH/EBDUSGS28904.59 Poor NONE
13972021-02-03 14:23:37PSTYesJEH/EBDUSGS28404.61 Poor NONE
13962021-02-03 14:19:59PSTYesJEH/EBDUSGS28604.63 Poor NONE
13952021-02-03 14:16:19PSTYesJEH/EBDUSGS29004.65 Poor NONE
13942020-12-08 13:55:09PSTYesAC, BGUSGS13004.93 Poor NONE
13932020-12-08 13:52:23PSTYesAC, BGUSGS12804.94 Poor NONE
13922020-12-08 13:49:34PSTYesAC, BGUSGS12904.96 Poor NONE
13912020-12-08 13:46:54PSTYesAC, BGUSGS12104.97 Poor NONE
13902020-12-08 13:44:11PSTYesAC, BGUSGS13204.99 Poor NONE
13892020-12-08 13:41:24PSTYesAC, BGUSGS12505.01 Poor NONE
13882020-12-08 13:36:15PSTYesAC, BGUSGS13205.04 Poor NONE
13872020-12-08 13:33:27PSTYesAC, BGUSGS14705.06 Poor NONE
13862020-09-03 08:11:35PSTYesZH,ACUSGS18005.68 Poor NONE
13852020-09-03 08:08:13PSTYesZH,ACUSGS17505.70 Poor NONE
13842020-09-03 08:05:04PSTYesZH,ACUSGS16905.72 Poor NONE
13832020-09-03 08:02PSTYesZH,ACUSGS17405.73 Poor NONE
13822020-09-03 07:59:12PSTYesZH,ACUSGS17405.75 Poor NONE
13812020-09-03 07:56:22PSTYesZH,ACUSGS17105.77 Poor NONE
13802020-05-14 11:28:24PSTYesAC/NVBUSGS14205.25 Poor NONE
13792020-05-14 11:23:42PSTYesAC/NVBUSGS14905.27 Poor NONE
13782020-05-14 11:18:30PSTYesAC/NVBUSGS13505.29 Poor NONE
13772020-05-14 11:13:15PSTYesAC/NVBUSGS14405.31 Poor NONE
13762020-05-14 11:08:13PSTYesAC/NVBUSGS15605.33 Poor NONE
13752020-05-14 11:03:39PSTYesAC/NVBUSGS17005.36 Poor NONE
13742020-05-14 10:59:03PSTYesAC/NVBUSGS17205.39 Poor NONE
13732020-05-14 10:54:31PSTYesAC/NVBUSGS16005.40 Poor NONE
13722020-05-14 10:50:31PSTYesAC/NVBUSGS17705.42 Poor NONE
13712020-05-14 10:46:35PSTYesAC/NVBUSGS16105.44 Poor NONE
13702020-05-14 10:42:41PSTYesAC/NVBUSGS17705.45 Poor NONE
13692020-05-14 10:38:59PSTYesAC/NVBUSGS20205.47 Poor NONE
13682020-01-23 13:00:26PSTYesAC, ZHUSGS44005.68 Poor NONE
13672020-01-23 12:57:43PSTYesAC, ZHUSGS43305.66 Poor NONE
13662020-01-23 12:55:01PSTYesAC, ZHUSGS42405.63 Poor NONE
13652020-01-23 12:52:27PSTYesAC, ZHUSGS42205.61 Poor NONE
13642020-01-23 12:49:41PSTYesAC, ZHUSGS43005.58 Poor NONE
13632020-01-23 12:46:36PSTYesAC, ZHUSGS42405.55 Poor NONE
13622019-11-22 11:07:21PSTYesZH,HRUSGS26404.62 Poor NONE
13612019-11-22 11:03:49PSTYesZH,HRUSGS27404.59 Poor NONE
13602019-11-22 11:00:27PSTYesZH,HRUSGS26304.57 Poor NONE
13592019-11-22 10:56:59PSTYesZH,HRUSGS26204.54 Poor NONE
13582019-11-22 10:53:24PSTYesZH,HRUSGS28904.51 Poor NONE
13572019-11-22 10:49:54PSTYesZH,HRUSGS25904.48 Poor NONE
13562019-09-18 09:42:26PSTYesZH/TDUSGS24705.58 Good NONE
13552019-09-18 09:38:51PSTYesZH/TDUSGS24805.59 Good NONE
13542019-09-18 09:35:16PSTYesZH/TDUSGS23205.60 Good NONE
13532019-09-18 09:31:49PSTYesZH/TDUSGS24305.61 Good NONE
13522019-09-18 09:28:54PSTYesZH/TDUSGS24505.62 Good NONE
13512019-09-18 09:26:05PSTYesZH/TDUSGS24405.63 Good NONE
13502019-07-25 10:17:40PSTYesTD/ZHUSGS25804.78 Fair NONE
13492019-07-25 10:14:16PSTYesTD/ZHUSGS28704.76 Fair NONE
13482019-07-25 10:10:46PSTYesTD/ZHUSGS28504.74 Fair NONE
13472019-07-25 10:07:34PSTYesTD/ZHUSGS28804.73 Fair NONE
13462019-07-25 10:04:50PSTYesTD/ZHUSGS27404.72 Fair NONE
13452019-07-25 10:02:14PSTYesTD/ZHUSGS27804.71 Good NONE
13442019-05-23 08:11:41PSTYesMI/TD/ZHUSGS62809.58 Unspecified NONE
13432019-05-23 08:08:08PSTYesMI/TD/ZHUSGS60209.56 Unspecified NONE
13422019-05-23 08:04:49PSTYesMI/TD/ZHUSGS63309.57 Unspecified NONE
13412019-05-23 08:01:24PSTYesMI/TD/ZHUSGS63309.55 Unspecified NONE
13402019-05-23 07:58:06PSTYesMI/TD/ZHUSGS61709.56 Unspecified NONE
13392019-05-23 07:55:04PSTYesMI/TD/ZHUSGS62909.55 Unspecified NONE
13382019-03-28 10:49:33PSTYesRPJ,NVBUSGS91209.58 Unspecified NONE
13372019-03-28 10:45:45PSTYesRPJ,NVBUSGS91109.56 Unspecified NONE
13362019-03-28 10:41:56PSTYesRPJ,NVBUSGS102009.57 Unspecified NONE
13352019-03-28 10:38:03PSTYesRPJ,NVBUSGS95909.55 Unspecified NONE
13342019-03-28 10:33:31PSTYesRPJ,NVBUSGS99909.56 Unspecified NONE
13332019-03-28 10:29:50PSTYesRPJ,NVBUSGS98209.55 Unspecified NONE
13322019-02-15 11:35:42PSTYesTV/MIUSGS1170011.47 Good NONE
13312019-02-15 11:32:07PSTYesTV/MIUSGS1200011.45 Good NONE
13302019-02-15 11:28:41PSTYesTV/MIUSGS1210011.47 Good NONE
13292019-02-15 11:25:13PSTYesTV/MIUSGS1130011.42 Good NONE
13282019-02-15 11:22:06PSTYesTV/MIUSGS1180011.41 Good NONE
13272019-02-15 11:19:34PSTYesTV/MIUSGS1190011.42 Good NONE
13262019-02-05 14:05:12PSTYesBG/TDUSGS81907.88 Poor NONE
13252019-02-05 14:02:15PSTYesBG/TDUSGS79307.85 Poor NONE
13242019-02-05 13:25:43PSTYesBG/TDUSGS77507.67 Poor NONE
13232019-02-05 13:22:51PSTYesBG/TDUSGS83607.65 Poor NONE
13222019-02-05 12:00:51PSTYesBG/TDUSGS79407.49 Poor NONE
13212019-02-05 11:58:03PSTYesBG/TDUSGS81507.49 Poor NONE
13202019-01-29 11:15:31PSTYesRJ/TD/BFUSGS54607.06 Unspecified NONE
13192019-01-29 11:12:01PSTYesRJ/TD/BFUSGS55107.04 Unspecified NONE
13182019-01-29 11:08:39PSTYesRJ/TD/BFUSGS52807.02 Unspecified NONE
13172019-01-29 11:05:20PSTYesRJ/TD/BFUSGS53207.00 Unspecified NONE
13162019-01-29 11:01:55PSTYesRJ/TD/BFUSGS52506.99 Unspecified NONE
13152019-01-29 10:58:46PSTYesRJ/TD/BFUSGS51406.97 Unspecified NONE
13142018-12-20 14:23:34PSTYesRJ/HR/TDUSGS49706.82 Unspecified NONE
13132018-12-20 14:20:30PSTYesRJ/HR/TDUSGS49706.81 Unspecified NONE
13122018-12-20 14:17:37PSTYesRJ/HR/TDUSGS51406.81 Unspecified NONE
13112018-12-20 14:14:49PSTYesRJ/HR/TDUSGS50706.80 Unspecified NONE
13102018-12-20 14:11:23PSTYesRJ/HR/TDUSGS53006.79 Unspecified NONE
13092018-12-20 14:07:52PSTYesRJ/HR/TDUSGS51106.78 Unspecified NONE
13082018-12-06 12:55:35PSTYesMI, HR, AEUSGS44705.60 Poor NONE
13072018-12-06 12:52:41PSTYesMI, HR, AEUSGS42805.57 Poor NONE
13062018-12-06 12:49:36PSTYesMI, HR, AEUSGS45405.54 Poor NONE
13052018-12-06 12:46:23PSTYesMI, HR, AEUSGS38705.51 Poor NONE
13042018-12-06 12:43:21PSTYesMI, HR, AEUSGS40105.48 Poor NONE
13032018-12-06 12:40:09PSTYesMI, HR, AEUSGS39205.44 Poor NONE
13022018-10-10 09:58:39PSTYesRJ, MIUSGS22004.95 Unspecified NONE
13012018-10-10 09:55:53PSTYesRJ, MIUSGS20704.97 Unspecified NONE
13002018-10-10 09:51:17PSTYesRJ, MIUSGS21504.99 Unspecified NONE
12992018-10-10 09:48:10PSTYesRJ, MIUSGS21205.01 Unspecified NONE
12982018-10-10 09:37:15PSTYesRJ, MIUSGS20205.08 Unspecified NONE
12972018-10-10 09:33:10PSTYesRJ, MIUSGS20005.11 Unspecified NONE
12962018-08-21 13:58:33PSTYesTV/ACUSGS31605.48 Unspecified NONE
12952018-08-21 13:54:55PSTYesTV/ACUSGS29805.47 Unspecified NONE
12942018-08-21 13:51:08PSTYesTV/ACUSGS31905.45 Unspecified NONE
12932018-08-21 13:47:13PSTYesTV/ACUSGS31905.42 Unspecified NONE
12922018-08-21 13:43:53PSTYesTV/ACUSGS30905.41 Unspecified NONE
12912018-08-21 13:41:01PSTYesTV/ACUSGS31105.39 Unspecified NONE
12902018-06-26 09:51:27PSTYesRPJ,NVBUSGS28504.49 Unspecified NONE
12892018-06-26 09:47:57PSTYesRPJ,NVBUSGS27704.52 Unspecified NONE
12882018-06-26 09:44:09PSTYesRPJ,NVBUSGS26904.54 Unspecified NONE
12872018-06-26 09:40:22PSTYesRPJ,NVBUSGS26304.57 Unspecified NONE
12862018-06-26 09:37:12PSTYesRPJ,NVBUSGS26404.59 Unspecified NONE
12852018-06-26 09:34:11PSTYesRPJ,NVBUSGS25804.61 Unspecified NONE
12842018-05-09 13:39:49PSTYesRPJ, MIUSGS14304.88 Unspecified NONE
12832018-05-09 13:36:10PSTYesRPJ, MIUSGS12704.90 Unspecified NONE
12822018-05-09 13:32:25PSTYesRPJ, MIUSGS12604.92 Unspecified NONE
12812018-05-09 13:28:32PSTYesRPJ, MIUSGS12404.93 Unspecified NONE
12802018-05-09 13:23:29PSTYesRPJ, MIUSGS11904.95 Unspecified NONE
12792018-05-09 13:19:57PSTYesRPJ, MIUSGS12004.96 Unspecified NONE
12782018-02-15 14:10:23PSTYesRPJ,NWSUSGS42605.14 Unspecified NONE
12772018-02-15 14:06:35PSTYesRPJ,NWSUSGS39505.11 Unspecified NONE
12762018-02-15 14:02:46PSTYesRPJ,NWSUSGS47205.07 Unspecified NONE
12752018-02-15 13:58:55PSTYesRPJ,NWSUSGS38805.05 Unspecified NONE
12742018-02-15 13:55:04PSTYesRPJ,NWSUSGS40105.00 Unspecified NONE
12732018-02-15 13:48:56PSTYesRPJ,NWSUSGS39904.94 Unspecified NONE
12722017-12-21 13:01:23PSTYesRPJ,BFUSGS3230 Unspecified NONE
12712017-12-21 12:57:06PSTYesRPJ,BFUSGS35604.30 Unspecified NONE
12702017-12-21 12:51:31PSTYesRPJ,BFUSGS32004.30 Unspecified NONE
12692017-12-21 12:46:36PSTYesRPJ,BFUSGS33704.31 Unspecified NONE
12682017-12-21 12:42:05PSTYesRPJ,BFUSGS33404.32 Unspecified NONE
12672017-12-21 12:37:43PSTYesRPJ,BFUSGS29104.32 Unspecified NONE
12662017-12-21 12:20:52PSTYesRPJ,BFUSGS33004.33 Unspecified NONE
12652017-12-21 12:17:23PSTYesRPJ,BFUSGS34904.33 Unspecified NONE
12642017-10-11 10:12:15PSTYesRPJ,WFUSGS33705.74 Unspecified NONE
12632017-10-11 10:08:11PSTYesRPJ,WFUSGS34005.73 Unspecified NONE
12622017-10-11 10:03:42PSTYesRPJ,WFUSGS35305.74 Unspecified NONE
12612017-10-11 09:59:48PSTYesRPJ,WFUSGS33905.73 Unspecified NONE
12602017-10-11 09:56:02PSTYesRPJ,WFUSGS36405.72 Unspecified NONE
12592017-10-11 09:51:59PSTYesRPJ,WFUSGS36205.71 Unspecified NONE
12582017-08-16 13:47:35PSTYesRPJ TvUSGS25905.50 Unspecified NONE
12572017-08-16 13:42:54PSTYesRPJ TvUSGS25905.52 Unspecified NONE
12562017-08-16 13:38:48PSTYesRPJ TvUSGS26105.52 Unspecified NONE
12552017-08-16 13:33:31PSTYesRPJ TvUSGS24405.53 Unspecified NONE
12542017-08-16 13:29:23PSTYesRPJ TvUSGS26505.53 Unspecified NONE
12532017-08-16 13:25:19PSTYesRPJ TvUSGS27205.54 Unspecified NONE
12522017-05-22 12:34:43PSTYesRPJ, NVUSGS70307.06 Unspecified NONE
12512017-05-22 12:30:52PSTYesRPJ, NVUSGS72007.05 Unspecified NONE
12502017-05-22 12:27:08PSTYesRPJ, NVUSGS69507.03 Unspecified NONE
12492017-05-22 12:23:25PSTYesRPJ, NVUSGS71207.02 Unspecified NONE
12482017-05-22 12:19:47PSTYesRPJ, NVUSGS76007.00 Unspecified NONE
12472017-05-22 12:16:21PSTYesRPJ, NVUSGS70906.99 Unspecified NONE
12462017-04-03 10:24PSTYesrj,nvUSGS86209.40 Unspecified NONE
12452017-04-03 10:18PSTYesrj,nvUSGS87509.41 Unspecified NONE
12442017-04-03 10:13PSTYesrj,nvUSGS95909.41 Unspecified NONE
12432017-04-03 10:08PSTYesrj,nvUSGS89009.41 Unspecified NONE
12422017-04-03 10:04PSTYesrj,nvUSGS91109.43 Unspecified NONE
12412017-04-03 10:00PSTYesrj,nvUSGS86009.42 Unspecified NONE
12402017-01-26 13:48:30PSTYesNVB, RJUSGS1170011.02 Unspecified NONE
12392017-01-26 13:45PSTYesNVB, RJUSGS1200011.00 Unspecified NONE
12382017-01-26 13:41PSTYesNVB, RJUSGS1150010.99 Unspecified NONE
12372017-01-26 13:37PSTYesNVB, RJUSGS1150010.99 Unspecified NONE
12362017-01-26 13:32:30PSTYesNVB, RJUSGS1200010.99 Unspecified NONE
12352017-01-26 13:28:30PSTYesNVB, RJUSGS1180010.98 Unspecified NONE
12342017-01-10 13:39:30PSTYesBS/WFUSGS1500013.60 Unspecified NONE
12332017-01-10 13:36:30PSTYesBS/WFUSGS1560013.59 Unspecified NONE
12322017-01-10 13:33:30PSTYesBS/WFUSGS1530013.58 Unspecified NONE
12312017-01-10 13:30PSTYesBS/WFUSGS1480013.56 Unspecified NONE
12302017-01-10 13:26:30PSTYesBS/WFUSGS1390013.55 Unspecified NONE
12292017-01-10 13:23PSTYesBS/WFUSGS1490013.54 Unspecified NONE
12282016-11-23 11:57:30PSTYesRPJ/NVBUSGS34105.44 Unspecified NONE
12272016-11-23 11:53PSTYesRPJ/NVBUSGS37205.43 Unspecified NONE
12262016-11-23 11:47PSTYesRPJ/NVBUSGS38005.41 Unspecified NONE
12252016-11-23 11:42PSTYesRPJ/NVBUSGS38405.38 Unspecified NONE
12242016-11-23 11:37PSTYesRPJ/NVBUSGS40205.32 Unspecified NONE
12232016-11-23 11:32PSTYesRPJ/NVBUSGS40905.29 Unspecified NONE
12222016-09-30 12:04:30PSTYesBJS/NDUSGS31203.90 Unspecified NONE
12212016-09-30 11:58:30PSTYesBJS/NDUSGS30903.88 Unspecified NONE
12202016-09-30 11:52PSTYesBJS/NDUSGS31503.87 Unspecified NONE
12192016-09-30 11:46PSTYesBJS/NDUSGS32503.87 Unspecified NONE
12182016-09-30 11:40PSTYesBJS/NDUSGS29503.87 Unspecified NONE
12172016-09-30 11:34:30PSTYesBJS/NDUSGS30403.88 Unspecified NONE
12162016-07-20 12:37:18PSTYesND,WFUSGS32903.82 Unspecified NONE
12152016-07-20 12:26:20PSTYesND,WFUSGS34003.88 Unspecified NONE
12142016-07-20 12:19:16PSTYesND,WFUSGS33003.92 Unspecified NONE
12132016-07-20 12:10:53PSTYesND,WFUSGS32903.96 Unspecified NONE
12122016-07-20 12:01:45PSTYesND,WFUSGS32904.02 Unspecified NONE
12112016-07-20 11:53:07PSTYesND,WFUSGS33004.07 Unspecified NONE
12102016-05-11 14:48:01PSTYesFC,BFUSGS35304.16 Fair NONE
12092016-05-11 14:43:40PSTYesFC,BFUSGS36604.19 Fair NONE
12082016-05-11 14:39:36PSTYesFC,BFUSGS34604.21 Fair NONE
12072016-05-11 14:35:49PSTYesFC,BFUSGS36004.23 Fair NONE
12062016-05-11 14:32:05PSTYesFC,BFUSGS34504.25 Fair NONE
12052016-05-11 14:28:27PSTYesFC,BFUSGS34604.28 Fair NONE
12042016-05-11 14:25:04PSTYesFC,BFUSGS33304.30 Fair NONE
12032016-03-14 15:30:20PSTYesBS/BFUSGS1280011.32 Fair NONE
12022016-03-14 15:26:03PSTYesBS/BFUSGS1280011.32 Fair NONE
12012016-03-14 15:21:35PSTYesBS/BFUSGS1260011.32 Fair NONE
12002016-03-14 15:17:23PSTYesBS/BFUSGS1270011.32 Fair NONE
11992016-03-14 15:12:52PSTYesBS/BFUSGS1270011.35 Fair NONE
11982016-03-14 15:08:28PSTYesBS/BFUSGS1310011.34 Fair NONE
11972016-03-08 11:05:45PSTYesTM RJUSGS86507.60 Fair NONE
11962016-03-08 11:02:35PSTYesTM RJUSGS80907.60 Fair NONE
11952016-03-08 10:58:54PSTYesTM RJUSGS84707.60 Fair NONE
11942016-03-08 10:54:38PSTYesTM RJUSGS84907.62 Fair NONE
11932016-03-08 09:39:49PSTYesTM RJUSGS83307.74 Fair NONE
11922015-08-27 15:20PSTYesDA, ADUSGS2060 FairDebrisLightNONE
11912015-08-27 15:15PSTYesDA, ADUSGS2050 FairDebrisLightNONE
11902015-08-27 15:11PSTYesDA, ADUSGS2160 FairDebrisLightNONE
11892015-08-27 15:06PSTYesDA, ADUSGS2280 FairDebrisLightNONE
11882015-08-27 15:01PSTYesDA, ADUSGS2190 FairDebrisLightNONE
11872015-08-27 14:57PSTYesDA, ADUSGS2240 FairDebrisLightNONE
11862015-08-27 14:52PSTYesDA, ADUSGS2290 FairDebrisLightNONE
11852015-08-27 14:47PSTYesDA, ADUSGS2180 FairDebrisLightNONE
11842015-08-27 14:42PSTYesDA, ADUSGS2140 FairDebrisLightNONE
11832015-08-27 14:36PSTYesDA, ADUSGS2330 FairDebrisLightNONE
11822015-08-27 14:31PSTYesDA, ADUSGS2210 FairDebrisLightNONE
11812015-08-27 14:26PSTYesDA, ADUSGS2380 FairDebrisLightNONE
11802015-08-27 14:21PSTYesDA, ADUSGS2470 FairDebrisLightNONE
11792015-08-27 14:16PSTYesDA, ADUSGS2440 FairDebrisLightNONE
11782015-08-27 14:11PSTYesDA, ADUSGS2280 FairDebrisLightNONE
11772015-08-27 14:06PSTYesDA, ADUSGS2430 FairDebrisLightNONE
11762015-08-27 14:00PSTYesDA, ADUSGS2430 FairDebrisLightNONE
11752015-08-27 13:56PSTYesDA, ADUSGS2450 FairDebrisLightNONE
11742015-08-27 13:51PSTYesDA, ADUSGS2370 FairDebrisLightNONE
11732015-08-27 13:46PSTYesDA, ADUSGS2370 FairDebrisLightNONE
11722015-08-27 13:17PSTYesDA, ADUSGS2580 FairDebrisLightNONE
11712015-08-27 13:13PSTYesDA, ADUSGS2850 FairDebrisLightNONE
11702015-08-27 13:09PSTYesDA, ADUSGS2680 FairDebrisLightNONE
11692015-08-27 13:04PSTYesDA, ADUSGS2660 FairDebrisLightNONE
11682015-08-27 12:58PSTYesDA, ADUSGS2770 FairDebrisLightNONE
11672015-08-27 12:51PSTYesDA, ADUSGS2700 FairDebrisLightNONE
11662015-08-27 12:46PSTYesDA, ADUSGS2620 FairDebrisLightNONE
11652015-08-27 12:41PSTYesDA, ADUSGS2670 FairDebrisLightNONE
11642015-08-27 12:37PSTYesDA, ADUSGS2770 FairDebrisLightNONE
11632015-08-27 12:32PSTYesDA, ADUSGS2740 FairDebrisLightNONE
11622015-08-27 12:26PSTYesDA, ADUSGS2660 FairDebrisLightNONE
11612015-08-27 12:21PSTYesDA, ADUSGS2730 FairDebrisLightNONE
11602015-08-27 12:16PSTYesDA, ADUSGS2900 FairDebrisLightNONE
11592015-08-27 12:11PSTYesDA, ADUSGS2790 FairDebrisLightNONE
11582015-08-27 11:49PSTYesDA, ADUSGS2670 FairDebrisLightNONE
11572015-08-27 11:44PSTYesDA, ADUSGS2950 FairDebrisLightNONE
11562015-08-27 11:39PSTYesDA, ADUSGS2810 FairDebrisLightNONE
11552015-08-27 11:33PSTYesDA, ADUSGS2700 FairDebrisLightNONE
11542015-07-07 09:51PSTYesMVC/CEUSGS689 Unspecified NONE
11532015-07-07 09:46PSTYesMVC/CEUSGS890 Unspecified NONE
11522015-07-07 09:42PSTYesMVC/CEUSGS871 Unspecified NONE
11512015-07-07 09:38PSTYesMVC/CEUSGS772 Unspecified NONE
11502015-07-07 09:34PSTYesMVC/CEUSGS918 Unspecified NONE
11492015-07-07 09:29PSTYesMVC/CEUSGS1020 Unspecified NONE
11482015-05-12 14:02PSTYesMVC/KBMUSGS887 Unspecified NONE
11472015-05-12 13:58PSTYesMVC/KBMUSGS952 Unspecified NONE
11462015-05-12 13:54PSTYesMVC/KBMUSGS975 Unspecified NONE
11452015-05-12 13:51PSTYesMVC/KBMUSGS1090 Unspecified NONE
11442015-05-12 13:45PSTYesMVC/KBMUSGS1050 Unspecified NONE
11432015-05-12 13:41PSTYesMVC/KBMUSGS1010 Unspecified NONE
11422015-05-12 13:36PSTYesMVC/KBMUSGS1010 Unspecified NONE
11412015-05-12 13:31PSTYesMVC/KBMUSGS938 Unspecified NONE
11332015-02-10 15:22PSTYesMVC/KBMUSGS6100 Unspecified NONE
11322015-02-10 15:16PSTYesMVC/KBMUSGS6170 Unspecified NONE
11312015-02-10 15:08PSTYesMVC/KBMUSGS6180 Unspecified NONE
11302015-02-10 15:01PSTYesMVC/KBMUSGS6150 Unspecified NONE
11292015-02-10 14:50PSTYesMVC/KBMUSGS5970 Unspecified NONE
11282015-02-10 14:45PSTYesMVC/KBMUSGS5990 Unspecified NONE
11272015-02-10 14:40PSTYesMVC/KBMUSGS6040 Unspecified NONE
11262015-01-20 17:21PSTYesYESUSGS1340 Unspecified NONE
11252015-01-20 17:15PSTYesYESUSGS1540 Unspecified NONE
11242015-01-20 17:04PSTYesYESUSGS1830 Unspecified NONE
11232015-01-20 16:57PSTYesYESUSGS1980 Unspecified NONE
11222015-01-20 16:52PSTYesYESUSGS2070 Unspecified NONE
11212015-01-20 16:47PSTYesYESUSGS2100 Unspecified NONE
11202015-01-20 16:42PSTYesYESUSGS2130 Unspecified NONE
11192015-01-20 16:36PSTYesYESUSGS2310 Unspecified NONE
11182015-01-20 16:32PSTYesYESUSGS2420 Unspecified NONE
11172014-12-15 13:48PSTYesYESUSGS7360 UnspecifiedUnspecifedNONE
11162014-12-15 13:39PSTYesYESUSGS7850 UnspecifiedUnspecifedNONE
11152014-12-15 13:33PSTYesYESUSGS7590 UnspecifiedUnspecifedNONE
11142014-12-15 13:26PSTYesYESUSGS8260 UnspecifiedUnspecifedNONE
11132014-12-15 13:19PSTYesYESUSGS7780 UnspecifiedUnspecifedNONE
11122014-12-15 13:11PSTYesYESUSGS8160 UnspecifiedUnspecifedNONE
11112014-12-15 13:03PSTYesYESUSGS7390 UnspecifiedUnspecifedNONE
11102014-12-15 12:57PSTYesYESUSGS7890 UnspecifiedUnspecifedNONE
11092014-09-29 11:07PSTYesYESUSGS1320 UnspecifiedUnspecifedNONE
11082014-09-29 10:40PSTYesYESUSGS1080 UnspecifiedUnspecifedNONE
11072014-09-29 10:33PSTYesYESUSGS998 UnspecifiedUnspecifedNONE
11062014-09-29 10:24PSTYesYESUSGS946 UnspecifiedUnspecifedNONE
11052014-09-29 10:16PSTYesYESUSGS985 UnspecifiedUnspecifedNONE
11042014-09-29 10:08PSTYesYESUSGS972 UnspecifiedUnspecifedNONE
11032014-09-29 10:00PSTYesYESUSGS944 UnspecifiedUnspecifedNONE
11022014-09-29 09:54PSTYesYESUSGS904 UnspecifiedUnspecifedNONE
11012014-01-24 13:01PSTYesYESUSGS605 Unspecified NONE
11002014-01-24 12:58PSTYesYESUSGS551 Unspecified NONE
10992014-01-24 12:54PSTYesYESUSGS477 Unspecified NONE
10982014-01-24 12:50PSTYesYESUSGS411 Unspecified NONE
10972014-01-24 12:37PSTYesYESUSGS305 Unspecified NONE
10962014-01-24 12:32PSTYesYESUSGS252 Unspecified NONE
10952014-01-24 12:29PSTYesYESUSGS284 Unspecified NONE
10942013-06-14 11:14PSTYesYESUSGS2300 Unspecified NONE
10932013-06-14 11:09PSTYesYESUSGS2310 Unspecified NONE
10922013-06-14 10:43PSTYesYESUSGS2200 Unspecified NONE
10912013-06-14 10:37PSTYesYESUSGS2180 Unspecified NONE
10902013-06-14 10:33PSTYesYESUSGS2100 Unspecified NONE
10892013-06-14 10:30PSTYesYESUSGS2150 Unspecified NONE
10882013-03-14 15:41PSTYesYESUSGS3260 Unspecified NONE
10872013-03-14 15:36PSTYesYESUSGS3450 Unspecified NONE
10862013-03-14 15:03PSTYesYESUSGS3590 Unspecified NONE
10852013-03-14 14:58PSTYesYESUSGS3680 Unspecified NONE
10842013-01-03 16:07PSTYesYESUSGS6320 Unspecified NONE
10832013-01-03 15:59PSTYesYESUSGS6730 Unspecified NONE
10822013-01-03 15:51PSTYesYESUSGS6630 Unspecified NONE
10812013-01-03 15:43PSTYesYESUSGS6380 Unspecified NONE
10802013-01-03 15:36PSTYesYESUSGS6340 Unspecified NONE
10792013-01-03 15:16PSTYesYESUSGS6140 Unspecified NONE
10782013-01-03 15:10PSTYesYESUSGS5860 Unspecified NONE
10772013-01-03 15:04PSTYesYESUSGS6160 Unspecified NONE
10762013-01-03 12:57PSTYesYESUSGS5840 Unspecified NONE
10752013-01-03 12:52PSTYesYESUSGS6160 Unspecified NONE
10742013-01-03 12:44PSTYesYESUSGS5580 Unspecified NONE
10732013-01-03 12:39PSTYesYESUSGS6080 Unspecified NONE
10722013-01-03 12:33PSTYesYESUSGS6280 Unspecified NONE
10712013-01-03 12:23PSTYesYESUSGS5990 Unspecified NONE
10702013-01-03 12:13PSTYesYESUSGS5600 Unspecified NONE
10692013-01-03 12:04PSTYesYESUSGS6260 Unspecified NONE
10682012-05-16 13:36PSTYesYESUSGS3430 Unspecified NONE
10672012-05-16 13:25PSTYesYESUSGS3440 Unspecified NONE
10662012-05-16 12:59PSTYesYESUSGS3740 Unspecified NONE
10652012-05-16 12:48PSTYesYESUSGS3840 Unspecified NONE
10642012-05-16 12:02PSTYesYESUSGS3770 Unspecified NONE
10632012-05-16 11:52PSTYesYESUSGS3920 Unspecified NONE
10622012-05-16 11:29PSTYesYESUSGS3750 Unspecified NONE
10612012-05-16 11:20PSTYesYESUSGS3650 Unspecified NONE
10602012-05-08 17:02PSTYesYESUSGS5050 Unspecified NONE
10592012-05-08 16:57PSTYesYESUSGS4530 Unspecified NONE
10582012-05-08 16:54PSTYesYESUSGS4560 Unspecified NONE
10572012-05-08 16:51PSTYesYESUSGS4620 Unspecified NONE
10562012-05-08 16:47PSTYesYESUSGS4370 Unspecified NONE
10552012-05-08 16:42PSTYesYESUSGS4770 Unspecified NONE
10542012-05-08 16:39PSTYesYESUSGS4480 Unspecified NONE
10532012-05-08 16:34PSTYesYESUSGS4780 Unspecified NONE
10522012-05-08 16:27PSTYesYESUSGS4360 Unspecified NONE
10512012-05-08 16:23PSTYesYESUSGS4720 Unspecified NONE
10502012-05-08 16:19PSTYesYESUSGS4180 Unspecified NONE
10492012-05-08 16:13PSTYesYESUSGS4700 Unspecified NONE
10482012-05-08 16:09PSTYesYESUSGS4920 Unspecified NONE
10472012-05-08 16:02PSTYesYESUSGS4990 Unspecified NONE
10462012-05-08 15:58PSTYesYESUSGS4520 Unspecified NONE
10452012-05-08 15:53PSTYesYESUSGS4850 Unspecified NONE
10442012-05-08 15:49PSTYesYESUSGS5110 Unspecified NONE
10432012-05-08 15:41PSTYesYESUSGS5130 Unspecified NONE
10422012-05-08 15:37PSTYesYESUSGS5310 Unspecified NONE
10412012-05-08 15:31PSTYesYESUSGS4980 Unspecified NONE
10402012-05-08 15:27PSTYesYESUSGS4920 Unspecified NONE
10392012-05-08 15:19PSTYesYESUSGS4840 Unspecified NONE
10382012-05-08 15:16PSTYesYESUSGS4760 Unspecified NONE
10372012-05-08 15:10PSTYesYESUSGS4680 Unspecified NONE
10362012-05-08 15:07PSTYesYESUSGS4700 Unspecified NONE
10352012-05-08 15:01PSTYesYESUSGS4430 Unspecified NONE
10342012-05-08 14:57PSTYesYESUSGS4900 Unspecified NONE
10332012-05-08 14:50PSTYesYESUSGS4120 Unspecified NONE
10322012-05-08 14:43PSTYesYESUSGS4190 Unspecified NONE
10312012-05-08 14:37PSTYesYESUSGS4220 Unspecified NONE
10302012-05-08 14:34PSTYesYESUSGS4170 Unspecified NONE
10292012-05-08 14:27PSTYesYESUSGS4060 Unspecified NONE
10282012-05-08 14:24PSTYesYESUSGS4340 Unspecified NONE
10272012-05-08 14:16PSTYesYESUSGS3950 Unspecified NONE
10262012-05-08 14:13PSTYesYESUSGS4310 Unspecified NONE
10252012-05-08 14:06PSTYesYESUSGS4170 Unspecified NONE
10242012-05-08 14:02PSTYesYESUSGS3960 Unspecified NONE
10232012-05-08 13:57PSTYesYESUSGS4100 Unspecified NONE
10222012-05-08 13:53PSTYesYESUSGS4160 Unspecified NONE
10212012-05-08 13:39PSTYesYESUSGS4010 Unspecified NONE
10202012-05-08 13:35PSTYesYESUSGS3980 Unspecified NONE
10192012-05-08 13:29PSTYesYESUSGS3840 Unspecified NONE
10182012-05-08 13:26PSTYesYESUSGS3840 Unspecified NONE
10172012-05-08 13:17PSTYesYESUSGS3690 Unspecified NONE
10162012-05-08 13:13PSTYesYESUSGS3420 Unspecified NONE
10152012-05-08 13:05PSTYesYESUSGS3600 Unspecified NONE
10142012-05-08 13:02PSTYesYESUSGS3740 Unspecified NONE
10132012-05-08 12:55PSTYesYESUSGS3750 Unspecified NONE
10122012-05-08 12:52PSTYesYESUSGS3640 Unspecified NONE
10112012-05-08 12:47PSTYesYESUSGS3750 Unspecified NONE
10102012-05-08 12:42PSTYesYESUSGS3730 Unspecified NONE
10092012-05-08 12:35PSTYesYESUSGS3680 Unspecified NONE
10082012-05-08 12:29PSTYesYESUSGS3730 Unspecified NONE
10072012-05-08 12:22PSTYesYESUSGS3670 Unspecified NONE
10062012-05-08 12:19PSTYesYESUSGS3300 Unspecified NONE
10052012-05-08 12:13PSTYesYESUSGS3590 Unspecified NONE
10042012-05-08 12:08PSTYesYESUSGS3640 Unspecified NONE
10032012-05-08 12:05PSTYesYESUSGS3740 Unspecified NONE
10022012-05-08 12:02PSTYesYESUSGS3680 Unspecified NONE
10012012-05-08 11:57PSTYesYESUSGS3590 Unspecified NONE
10002012-05-08 11:51PSTYesYESUSGS3750 Unspecified NONE
9992012-05-08 11:47PSTYesYESUSGS3590 Unspecified NONE
9982012-05-08 11:44PSTYesYESUSGS3830 Unspecified NONE
9972012-05-08 11:40PSTYesYESUSGS3720 Unspecified NONE
9962012-05-08 11:36PSTYesYESUSGS3490 Unspecified NONE
9952012-05-08 11:31PSTYesYESUSGS3810 Unspecified NONE
9942012-05-08 11:28PSTYesYESUSGS3480 Unspecified NONE
9932012-05-08 11:24PSTYesYESUSGS3580 Unspecified NONE
9922012-05-08 11:18PSTYesYESUSGS3650 Unspecified NONE
9912012-05-08 11:14PSTYesYESUSGS3580 Unspecified NONE
9902012-05-08 11:09PSTYesYESUSGS3710 Unspecified NONE
9892012-05-08 11:06PSTYesYESUSGS3610 Unspecified NONE
9882012-05-08 11:02PSTYesYESUSGS3570 Unspecified NONE
9872012-05-08 10:58PSTYesYESUSGS3570 Unspecified NONE
9862012-05-08 10:55PSTYesYESUSGS3390 Unspecified NONE
9852012-05-08 10:48PSTYesYESUSGS3280 Unspecified NONE
9842012-03-19 12:20PSTYesYESUSGS5530 Unspecified NONE
9832012-03-19 12:10PSTYesYESUSGS5530 Unspecified NONE
9822012-03-19 12:01PSTYesYESUSGS5970 Unspecified NONE
9812012-03-19 11:51PSTYesYESUSGS5950 Unspecified NONE
9802012-02-17 17:09PSTYesYESUSGS2640 Unspecified NONE
9792012-02-17 17:06PSTYesYESUSGS2730 Unspecified NONE
9782012-02-17 17:00PSTYesYESUSGS2550 Unspecified NONE
9772012-02-17 16:57PSTYesYESUSGS2510 Unspecified NONE
9762012-02-17 16:53PSTYesYESUSGS2610 Unspecified NONE
9752012-02-17 16:49PSTYesYESUSGS2400 Unspecified NONE
9742012-02-17 16:45PSTYesYESUSGS2420 Unspecified NONE
9732012-02-17 16:41PSTYesYESUSGS2620 Unspecified NONE
9722012-02-17 16:37PSTYesYESUSGS2470 Unspecified NONE
9712012-02-17 16:34PSTYesYESUSGS2530 Unspecified NONE
9702012-02-17 16:29PSTYesYESUSGS2320 Unspecified NONE
9692012-02-17 16:14PSTYesYESUSGS2380 Unspecified NONE
9682012-02-17 16:10PSTYesYESUSGS2300 Unspecified NONE
9672012-02-17 16:07PSTYesYESUSGS2440 Unspecified NONE
9662012-02-17 16:03PSTYesYESUSGS2430 Unspecified NONE
9652012-02-17 15:59PSTYesYESUSGS2340 Unspecified NONE
9642012-02-17 15:55PSTYesYESUSGS2390 Unspecified NONE
9632012-02-17 15:51PSTYesYESUSGS2160 Unspecified NONE
9622012-02-17 15:48PSTYesYESUSGS2370 Unspecified NONE
9612012-02-17 15:44PSTYesYESUSGS2500 Unspecified NONE
9602012-02-17 15:39PSTYesYESUSGS2450 Unspecified NONE
9592012-02-17 15:32PSTYesYESUSGS2440 Unspecified NONE
9582012-02-17 15:28PSTYesYESUSGS2490 Unspecified NONE
9572012-02-17 15:24PSTYesYESUSGS2290 Unspecified NONE
9562012-02-17 15:20PSTYesYESUSGS2410 Unspecified NONE
9552012-02-17 15:16PSTYesYESUSGS2380 Unspecified NONE
9542012-02-17 15:13PSTYesYESUSGS2400 Unspecified NONE
9532012-02-17 15:09PSTYesYESUSGS2360 Unspecified NONE
9522012-02-17 15:05PSTYesYESUSGS2430 Unspecified NONE
9512012-02-17 15:01PSTYesYESUSGS2420 Unspecified NONE
9502012-02-17 14:57PSTYesYESUSGS2260 Unspecified NONE
9492012-02-17 14:54PSTYesYESUSGS2240 Unspecified NONE
9482012-02-17 14:50PSTYesYESUSGS2280 Unspecified NONE
9472012-02-17 14:46PSTYesYESUSGS2220 Unspecified NONE
9462012-02-17 14:42PSTYesYESUSGS2180 Unspecified NONE
9452012-02-17 14:34PSTYesYESUSGS2000 Unspecified NONE
9442012-02-17 14:31PSTYesYESUSGS2170 Unspecified NONE
9432012-02-17 13:53PSTYesYESUSGS2200 Unspecified NONE
9422012-02-17 13:50PSTYesYESUSGS2340 Unspecified NONE
9412012-02-17 13:46PSTYesYESUSGS2460 Unspecified NONE
9402012-02-17 13:42PSTYesYESUSGS2470 Unspecified NONE
9392012-02-17 13:39PSTYesYESUSGS2470 Unspecified NONE
9382012-02-17 13:35PSTYesYESUSGS2690 Unspecified NONE
9372012-02-17 13:31PSTYesYESUSGS2750 Unspecified NONE
9362012-02-17 13:27PSTYesYESUSGS2700 Unspecified NONE
9352012-02-17 13:24PSTYesYESUSGS2850 Unspecified NONE
9342012-02-17 13:11PSTYesYESUSGS2740 Unspecified NONE
9332012-02-17 13:06PSTYesYESUSGS3100 Unspecified NONE
9322012-02-17 13:03PSTYesYESUSGS3360 Unspecified NONE
9312012-02-17 12:58PSTYesYESUSGS3200 Unspecified NONE
9302012-02-17 12:54PSTYesYESUSGS3500 Unspecified NONE
9292012-02-17 12:50PSTYesYESUSGS3380 Unspecified NONE
9282012-02-17 12:46PSTYesYESUSGS3610 Unspecified NONE
9272012-02-17 12:41PSTYesYESUSGS3400 Unspecified NONE
9262012-02-17 12:36PSTYesYESUSGS3600 Unspecified NONE
9252012-02-17 12:31PSTYesYESUSGS3660 Unspecified NONE
9242012-02-17 12:25PSTYesYESUSGS3730 Unspecified NONE
9232012-02-17 12:20PSTYesYESUSGS3730 Unspecified NONE
9222012-02-17 12:14PSTYesYESUSGS3740 Unspecified NONE
9212012-02-17 12:08PSTYesYESUSGS3730 Unspecified NONE
9202012-02-17 11:38PSTYesYESUSGS4130 Unspecified NONE
9192012-02-17 11:33PSTYesYESUSGS4140 Unspecified NONE
9182012-02-17 11:29PSTYesYESUSGS3850 Unspecified NONE
9172012-02-17 11:24PSTYesYESUSGS3830 Unspecified NONE
9162012-02-17 11:19PSTYesYESUSGS3690 Unspecified NONE
9152012-02-17 11:14PSTYesYESUSGS3940 Unspecified NONE
9142012-02-17 11:09PSTYesYESUSGS4040 Unspecified NONE
9132012-02-17 11:00PSTYesYESUSGS3890 Unspecified NONE
9122012-02-17 10:55PSTYesYESUSGS3840 Unspecified NONE
9112012-02-17 10:48PSTYesYESUSGS3920 Unspecified NONE
9102012-02-17 10:43PSTYesYESUSGS4210 Unspecified NONE
9092012-02-17 10:35PSTYesYESUSGS4200 Unspecified NONE
9082012-02-17 10:30PSTYesYESUSGS3560 Unspecified NONE
9072012-02-17 10:24PSTYesYESUSGS3990 Unspecified NONE
9062012-02-17 10:19PSTYesYESUSGS3950 Unspecified NONE
9052012-02-17 10:12PSTYesYESUSGS4170 Unspecified NONE
9042012-02-17 10:07PSTYesYESUSGS3900 Unspecified NONE
9032012-02-17 10:00PSTYesYESUSGS4030 Unspecified NONE
9022012-02-17 09:55PSTYesYESUSGS3650 Unspecified NONE
9012012-02-17 09:49PSTYesYESUSGS4000 Unspecified NONE
9002012-02-17 09:45PSTYesYESUSGS3940 Unspecified NONE
8992012-02-17 09:35PSTYesYESUSGS3740 Unspecified NONE
8982012-02-15 16:57PSTYesYESUSGS3080 Unspecified NONE
8972012-02-15 16:51PSTYesYESUSGS2960 Unspecified NONE
8962012-02-15 16:44PSTYesYESUSGS3000 Unspecified NONE
8952012-02-15 16:39PSTYesYESUSGS2950 Unspecified NONE
8942012-02-15 16:33PSTYesYESUSGS2790 Unspecified NONE
8932012-02-15 16:27PSTYesYESUSGS3040 Unspecified NONE
8922012-02-15 16:20PSTYesYESUSGS3040 Unspecified NONE
8912012-02-15 16:15PSTYesYESUSGS2770 Unspecified NONE
8902012-02-15 16:09PSTYesYESUSGS2890 Unspecified NONE
8892012-02-15 16:04PSTYesYESUSGS2880 Unspecified NONE
8882012-02-15 15:57PSTYesYESUSGS2750 Unspecified NONE
8872012-02-15 15:51PSTYesYESUSGS2980 Unspecified NONE
8862012-02-15 15:28PSTYesYESUSGS2560 Unspecified NONE
8852012-02-15 15:23PSTYesYESUSGS2500 Unspecified NONE
8842012-02-15 15:18PSTYesYESUSGS2530 Unspecified NONE
8832012-02-15 15:12PSTYesYESUSGS2530 Unspecified NONE
8822012-02-15 15:07PSTYesYESUSGS2590 Unspecified NONE
8812012-02-15 15:03PSTYesYESUSGS2490 Unspecified NONE
8802012-02-15 14:57PSTYesYESUSGS2580 Unspecified NONE
8792012-02-15 14:53PSTYesYESUSGS2610 Unspecified NONE
8782012-02-15 14:46PSTYesYESUSGS2570 Unspecified NONE
8772012-02-15 14:41PSTYesYESUSGS2500 Unspecified NONE
8762012-02-15 14:33PSTYesYESUSGS2480 Unspecified NONE
8752012-02-15 14:27PSTYesYESUSGS2250 Unspecified NONE
8742012-02-15 14:20PSTYesYESUSGS2280 Unspecified NONE
8732011-12-28 16:24PSTYesYESUSGS3920 Unspecified NONE
8722011-12-28 16:18PSTYesYESUSGS3690 Unspecified NONE
8712011-12-28 16:12PSTYesYESUSGS3510 Unspecified NONE
8702011-12-28 16:07PSTYesYESUSGS3650 Unspecified NONE
8692011-03-21 11:07PSTYesYESUSGS13200 Unspecified NONE
8682011-03-21 11:02PSTYesYESUSGS13700 Unspecified NONE
8672011-03-21 10:59PSTYesYESUSGS12900 Unspecified NONE
8662011-03-21 10:54PSTYesYESUSGS14400 Unspecified NONE
8652011-03-21 10:51PSTYesYESUSGS13000 Unspecified NONE
8642011-03-21 10:45PSTYesYESUSGS14900 Unspecified NONE
8632010-12-22 16:00PSTYesYESUSGS12000 Unspecified NONE
8622010-12-22 15:57PSTYesYESUSGS12100 Unspecified NONE
8612010-12-22 15:53PSTYesYESUSGS11300 Unspecified NONE
8602010-12-22 15:49PSTYesYESUSGS12600 Unspecified NONE
8592010-12-22 15:45PSTYesYESUSGS11500 Unspecified NONE
8582010-12-22 15:42PSTYesYESUSGS11400 Unspecified NONE
8572010-10-07 17:12PSTYesYESUSGS1630 Unspecified NONE
8562010-10-07 17:05PSTYesYESUSGS1790 Unspecified NONE
8552010-10-07 17:02PSTYesYESUSGS1860 Unspecified NONE
8542010-10-07 16:58PSTYesYESUSGS1910 Unspecified NONE
8532010-10-07 16:55PSTYesYESUSGS1990 Unspecified NONE
8522010-10-07 16:52PSTYesYESUSGS2040 Unspecified NONE
8512010-10-07 16:48PSTYesYESUSGS2170 Unspecified NONE
8502010-10-07 16:45PSTYesYESUSGS2040 Unspecified NONE
8492010-10-07 15:54PSTYesYESUSGS2580 Unspecified NONE
8482010-10-07 15:52PSTYesYESUSGS2550 Unspecified NONE
8472010-10-07 15:49PSTYesYESUSGS2550 Unspecified NONE
8462010-10-07 15:47PSTYesYESUSGS2500 Unspecified NONE
8452010-10-07 15:43PSTYesYESUSGS2720 Unspecified NONE
8442010-10-07 15:39PSTYesYESUSGS2670 Unspecified NONE
8432010-10-07 15:37PSTYesYESUSGS2790 Unspecified NONE
8422010-10-07 15:34PSTYesYESUSGS2610 Unspecified NONE
8412010-10-07 14:15PSTYesYESUSGS3240 Unspecified NONE
8402010-10-07 14:13PSTYesYESUSGS3160 Unspecified NONE
8392010-10-07 14:10PSTYesYESUSGS3280 Unspecified NONE
8382010-10-07 14:06PSTYesYESUSGS3200 Unspecified NONE
8372010-10-07 14:04PSTYesYESUSGS2990 Unspecified NONE
8362010-10-07 13:52PSTYesYESUSGS3080 Unspecified NONE
8352010-10-07 13:48PSTYesYESUSGS3300 Unspecified NONE
8342010-10-07 13:45PSTYesYESUSGS3150 Unspecified NONE
8332010-10-07 13:42PSTYesYESUSGS3570 Unspecified NONE
8322010-10-07 13:38PSTYesYESUSGS3190 Unspecified NONE
8312010-10-07 13:34PSTYesYESUSGS3280 Unspecified NONE
8302010-10-07 13:31PSTYesYESUSGS3330 Unspecified NONE
8292010-10-07 11:55PSTYesYESUSGS3840 Unspecified NONE
8282010-10-07 11:52PSTYesYESUSGS3750 Unspecified NONE
8272010-10-07 11:49PSTYesYESUSGS3570 Unspecified NONE
8262010-10-07 11:44PSTYesYESUSGS3590 Unspecified NONE
8252010-10-07 11:42PSTYesYESUSGS3560 Unspecified NONE
8242010-10-07 11:39PSTYesYESUSGS3490 Unspecified NONE
8232010-10-07 11:35PSTYesYESUSGS3430 Unspecified NONE
8222010-10-07 11:31PSTYesYESUSGS3590 Unspecified NONE
8212010-10-07 11:28PSTYesYESUSGS3200 Unspecified NONE
8202010-10-07 11:25PSTYesYESUSGS3350 Unspecified NONE
8192010-10-07 11:21PSTYesYESUSGS3540 Unspecified NONE
8182010-10-07 11:19PSTYesYESUSGS3320 Unspecified NONE
8172010-10-07 09:41PSTYesYESUSGS2870 Unspecified NONE
8162010-10-07 09:36PSTYesYESUSGS2800 Unspecified NONE
8152010-10-07 09:32PSTYesYESUSGS2920 Unspecified NONE
8142010-10-07 09:27PSTYesYESUSGS2830 Unspecified NONE
8132010-10-07 09:22PSTYesYESUSGS2810 Unspecified NONE
8122010-10-07 09:16PSTYesYESUSGS2700 Unspecified NONE
8112010-10-07 09:12PSTYesYESUSGS2820 Unspecified NONE
8102010-10-07 09:07PSTYesYESUSGS2750 Unspecified NONE
8092010-10-07 09:04PSTYesYESUSGS2750 Unspecified NONE
8082010-10-07 08:59PSTYesYESUSGS2560 Unspecified NONE
8072010-10-07 08:54PSTYesYESUSGS2570 Unspecified NONE
8062010-10-07 07:13PSTYesYESUSGS2150 Unspecified NONE
8052010-10-07 07:09PSTYesYESUSGS2230 Unspecified NONE
8042010-10-07 07:05PSTYesYESUSGS2030 Unspecified NONE
8032010-10-07 07:00PSTYesYESUSGS2100 Unspecified NONE
8022010-10-07 06:54PSTYesYESUSGS2110 Unspecified NONE
8012010-10-07 06:50PSTYesYESUSGS1850 Unspecified NONE
8002010-10-07 06:43PSTYesYESUSGS1960 Unspecified NONE
7992010-10-07 06:39PSTYesYESUSGS1960 Unspecified NONE
7982010-10-07 06:34PSTYesYESUSGS2030 Unspecified NONE
7972010-01-25 15:45PSTYesYESUSGS9450 Unspecified NONE
7962010-01-25 15:42PSTYesYESUSGS9920 Unspecified NONE
7952010-01-25 15:37PSTYesYESUSGS9680 Unspecified NONE
7942010-01-25 15:34PSTYesYESUSGS9410 Unspecified NONE
7932010-01-25 15:26PSTYesYESUSGS9130 Unspecified NONE
7922010-01-25 15:24PSTYesYESUSGS9670 Unspecified NONE
7912009-07-22 17:31PSTYesYESUSGS3350 Unspecified NONE
7902009-07-22 17:27PSTYesYESUSGS3620 Unspecified NONE
7892009-07-22 17:23PSTYesYESUSGS3490 Unspecified NONE
7882009-07-22 17:18PSTYesYESUSGS3320 Unspecified NONE
7872009-07-22 17:14PSTYesYESUSGS3310 Unspecified NONE
7862009-07-22 17:10PSTYesYESUSGS3600 Unspecified NONE
7852009-07-22 17:06PSTYesYESUSGS3470 Unspecified NONE
7842009-07-22 17:03PSTYesYESUSGS3480 Unspecified NONE
7832009-07-22 16:12PSTYesYESUSGS3850 Unspecified NONE
7822009-07-22 16:07PSTYesYESUSGS4000 Unspecified NONE
7812009-07-22 16:03PSTYesYESUSGS3710 Unspecified NONE
7802009-07-22 15:58PSTYesYESUSGS4000 Unspecified NONE
7792009-07-22 15:11PSTYesYESUSGS4070 Unspecified NONE
7782009-07-22 15:04PSTYesYESUSGS4300 Unspecified NONE
7772009-07-22 15:00PSTYesYESUSGS4230 Unspecified NONE
7762009-07-22 14:55PSTYesYESUSGS4230 Unspecified NONE
7752009-07-22 14:22PSTYesYESUSGS4460 Unspecified NONE
7742009-07-22 14:19PSTYesYESUSGS4380 Unspecified NONE
7732009-07-22 14:15PSTYesYESUSGS4320 Unspecified NONE
7722009-07-22 14:10PSTYesYESUSGS4070 Unspecified NONE
7712009-07-22 13:39PSTYesYESUSGS4320 Unspecified NONE
7702009-07-22 13:34PSTYesYESUSGS4230 Unspecified NONE
7692009-07-22 13:30PSTYesYESUSGS4160 Unspecified NONE
7682009-07-22 13:25PSTYesYESUSGS4190 Unspecified NONE
7672009-07-22 13:17PSTYesYESUSGS3930 Unspecified NONE
7662009-07-22 13:12PSTYesYESUSGS4090 Unspecified NONE
7652009-07-22 13:08PSTYesYESUSGS4050 Unspecified NONE
7642009-07-22 13:03PSTYesYESUSGS4140 Unspecified NONE
7632009-07-22 12:23PSTYesYESUSGS3790 Unspecified NONE
7622009-07-22 12:18PSTYesYESUSGS3760 Unspecified NONE
7612009-07-22 12:11PSTYesYESUSGS3680 Unspecified NONE
7602009-07-22 12:05PSTYesYESUSGS3920 Unspecified NONE
7592009-07-22 11:56PSTYesYESUSGS3530 Unspecified NONE
7582009-07-22 11:51PSTYesYESUSGS3730 Unspecified NONE
7572009-07-22 11:18PSTYesYESUSGS3590 Unspecified NONE
7562009-07-22 11:13PSTYesYESUSGS3590 Unspecified NONE
7552009-07-22 11:09PSTYesYESUSGS3560 Unspecified NONE
7542009-07-22 11:04PSTYesYESUSGS3600 Unspecified NONE
7532009-07-22 10:22PSTYesYESUSGS3580 Unspecified NONE
7522009-07-22 10:17PSTYesYESUSGS3550 Unspecified NONE
7512009-07-22 10:13PSTYesYESUSGS3350 Unspecified NONE
7502009-07-22 10:08PSTYesYESUSGS3530 Unspecified NONE
7492009-07-22 09:38PSTYesYESUSGS3410 Unspecified NONE
7482009-07-22 09:32PSTYesYESUSGS3340 Unspecified NONE
7472009-07-22 09:17PSTYesYESUSGS3540 Unspecified NONE
7462009-07-22 09:12PSTYesYESUSGS3300 Unspecified NONE
7452009-07-22 09:08PSTYesYESUSGS3350 Unspecified NONE
7442009-07-22 09:03PSTYesYESUSGS3240 Unspecified NONE
7432009-07-22 08:15PSTYesYESUSGS3030 Unspecified NONE
7422009-07-22 08:11PSTYesYESUSGS3210 Unspecified NONE
7412009-07-22 08:06PSTYesYESUSGS3010 Unspecified NONE
7402009-07-22 08:01PSTYesYESUSGS3010 Unspecified NONE
7392009-07-22 07:36PSTYesYESUSGS2890 Unspecified NONE
7382009-07-22 07:31PSTYesYESUSGS2760 Unspecified NONE
7372009-07-22 07:26PSTYesYESUSGS2900 Unspecified NONE
7362009-07-22 07:21PSTYesYESUSGS2930 Unspecified NONE
7352009-07-22 07:16PSTYesYESUSGS2780 Unspecified NONE
7342009-07-22 07:11PSTYesYESUSGS2580 Unspecified NONE
7332009-07-22 06:43PSTYesYESUSGS2690 Unspecified NONE
7322009-07-22 06:37PSTYesYESUSGS2490 Unspecified NONE
7312009-07-22 06:31PSTYesYESUSGS2280 Unspecified NONE
7302009-07-22 06:26PSTYesYESUSGS2490 Unspecified NONE
7292009-07-22 06:03PSTYesYESUSGS2350 Unspecified NONE
7282009-07-22 05:58PSTYesYESUSGS2250 Unspecified NONE
7272009-07-22 05:53PSTYesYESUSGS2220 Unspecified NONE
7262009-07-22 05:49PSTYesYESUSGS2140 Unspecified NONE
7252009-03-09 09:35PSTYesBJS/PHKUSGS58605.43 Unspecified NONE
7242009-03-09 09:30PSTYesBJS/PHKUSGS55805.45 Unspecified NONE
7232009-03-09 09:26PSTYesBJS/PHKUSGS58005.46 Unspecified NONE
7222009-03-09 09:22PSTYesBJS/PHKUSGS56705.47 Unspecified NONE
7212009-03-09 09:19PSTYesBJS/PHKUSGS55905.48 Unspecified NONE
7202009-03-09 09:15PSTYesBJS/PHKUSGS58605.49 Unspecified NONE
7192008-12-11 13:48PSTYesPHK/CRBUSGS6115.61 Unspecified NONE
7182008-12-11 13:46PSTYesPHK/CRBUSGS7365.59 Unspecified NONE
7172008-12-11 13:39PSTYesPHK/CRBUSGS7085.55 Unspecified NONE
7162008-12-11 13:37PSTYesPHK/CRBUSGS7535.54 Unspecified NONE
7152008-12-11 13:31PSTYesPHK/CRBUSGS8565.50 Unspecified NONE
7142008-12-11 12:23PSTYesPHK/CRBUSGS15404.99 Unspecified NONE
7132008-12-11 12:20PSTYesPHK/CRBUSGS15804.97 Unspecified NONE
7122008-12-11 12:18PSTYesPHK/CRBUSGS16304.95 Unspecified NONE
7112008-12-11 12:15PSTYesPHK/CRBUSGS17604.93 Unspecified NONE
7102008-12-11 12:12PSTYesPHK/CRBUSGS17504.90 Unspecified NONE
7092008-12-11 12:10PSTYesPHK/CRBUSGS16504.88 Unspecified NONE
7082008-03-25 11:50PSTYesJBD/CRBUSGS26103.95 Unspecified NONE
7072008-03-25 11:47PSTYesJBD/CRBUSGS26703.97 Unspecified NONE
7062008-03-25 11:45PSTYesJBD/CRBUSGS26003.98 Unspecified NONE
7052008-03-25 11:40PSTYesJBD/CRBUSGS27204.01 Unspecified NONE
7042008-03-25 11:37PSTYesJBD/CRBUSGS26004.02 Unspecified NONE
7032008-03-25 11:34PSTYesJBD/CRBUSGS27104.04 Unspecified NONE
7022007-12-28 09:40PSTYesTMG/BJSUSGS30004.88 Unspecified NONE
7012007-12-28 09:38PSTYesTMG/BJSUSGS31404.88 Unspecified NONE
7002007-12-28 09:36PSTYesTMG/BJSUSGS31204.89 Unspecified NONE
6992007-12-28 09:34PSTYesTMG/BJSUSGS30304.89 Unspecified NONE
6982007-12-28 09:32PSTYesTMG/BJSUSGS33104.90 Unspecified NONE
6972007-12-28 09:30PSTYesTMG/BJSUSGS31804.90 Unspecified NONE
6962007-12-28 09:28PSTYesTMG/BJSUSGS34004.90 Unspecified NONE
6952007-12-28 09:26PSTYesTMG/BJSUSGS32804.90 Unspecified NONE
6942007-12-28 09:24PSTYesTMG/BJSUSGS34704.90 Unspecified NONE
6932007-12-28 09:22PSTYesTMG/BJSUSGS33404.90 Unspecified NONE
6922007-08-28 17:26PSTYesTMG/AutUSGS27105.24 Unspecified NONE
6912007-08-28 17:25PSTYesTMG/AutUSGS28305.24 Unspecified NONE
6902007-08-28 17:23PSTYesTMG/AutUSGS28605.23 Unspecified NONE
6892007-08-28 17:21PSTYesTMG/AutUSGS27905.22 Unspecified NONE
6882007-08-28 17:20PSTYesTMG/AutUSGS28605.21 Unspecified NONE
6872007-08-28 17:18PSTYesTMG/AutUSGS29405.21 Unspecified NONE
6862007-08-28 17:16PSTYesTMG/AutUSGS29205.20 Unspecified NONE
6852007-08-28 17:14PSTYesTMG/AutUSGS28205.20 Unspecified NONE
6842007-08-28 17:12PSTYesTMG/AutUSGS29205.18 Unspecified NONE
6832007-08-28 17:08PSTYesTMG/AutUSGS29305.16 Unspecified NONE
6822007-08-28 17:06PSTYesTMG/AutUSGS29605.16 Unspecified NONE
6812007-08-28 17:05PSTYesTMG/AutUSGS31405.15 Unspecified NONE
6802007-08-28 17:03PSTYesTMG/AutUSGS31205.14 Unspecified NONE
6792007-08-28 17:01PSTYesTMG/AutUSGS32605.13 Unspecified NONE
6782007-08-28 16:50PSTYesTMG/AutUSGS30705.07 Unspecified NONE
6772007-08-28 16:49PSTYesTMG/AutUSGS30505.06 Unspecified NONE
6762007-08-28 16:47PSTYesTMG/AutUSGS31205.05 Unspecified NONE
6752007-08-28 16:45PSTYesTMG/AutUSGS31705.04 Unspecified NONE
6742007-08-28 16:43PSTYesTMG/AutUSGS30905.03 Unspecified NONE
6732007-08-28 16:41PSTYesTMG/AutUSGS32405.02 Unspecified NONE
6722007-08-28 16:40PSTYesTMG/AutUSGS31005.01 Unspecified NONE
6712007-08-28 16:38PSTYesTMG/AutUSGS31905.00 Unspecified NONE
6702007-08-28 16:36PSTYesTMG/AutUSGS31405.00 Unspecified NONE
6692007-08-28 16:34PSTYesTMG/AutUSGS33804.99 Unspecified NONE
6682007-08-28 16:32PSTYesTMG/AutUSGS32004.98 Unspecified NONE
6672007-08-28 16:31PSTYesTMG/AutUSGS32404.97 Unspecified NONE
6662007-08-28 16:23PSTYesTMG/AutUSGS32904.92 Unspecified NONE
6652007-08-28 16:21PSTYesTMG/AutUSGS33804.92 Unspecified NONE
6642007-08-28 16:19PSTYesTMG/AutUSGS34804.91 Unspecified NONE
6632007-08-28 16:17PSTYesTMG/AutUSGS33404.89 Unspecified NONE
6622007-08-28 16:15PSTYesTMG/AutUSGS31504.88 Unspecified NONE
6612007-08-28 16:14PSTYesTMG/AutUSGS34204.87 Unspecified NONE
6602007-08-28 16:12PSTYesTMG/AutUSGS33504.85 Unspecified NONE
6592007-08-28 16:10PSTYesTMG/AutUSGS35304.84 Unspecified NONE
6582007-08-28 16:08PSTYesTMG/AutUSGS35004.82 Unspecified NONE
6572007-08-28 16:06PSTYesTMG/AutUSGS32404.81 Unspecified NONE
6562007-08-28 16:04PSTYesTMG/AutUSGS32804.80 Unspecified NONE
6552007-08-28 16:03PSTYesTMG/AutUSGS35104.79 Unspecified NONE
6542007-08-28 16:01PSTYesTMG/AutUSGS33304.78 Unspecified NONE
6532007-08-28 15:59PSTYesTMG/AutUSGS33704.76 Unspecified NONE
6522007-08-28 15:57PSTYesTMG/AutUSGS33304.75 Unspecified NONE
6512007-08-28 15:55PSTYesTMG/AutUSGS36404.73 Unspecified NONE
6502007-08-28 15:44PSTYesTMG/AutUSGS35304.66 Unspecified NONE
6492007-08-28 15:42PSTYesTMG/AutUSGS34804.65 Unspecified NONE
6482007-08-28 15:40PSTYesTMG/AutUSGS35604.63 Unspecified NONE
6472007-08-28 15:38PSTYesTMG/AutUSGS34604.62 Unspecified NONE
6462007-08-28 15:36PSTYesTMG/AutUSGS33504.61 Unspecified NONE
6452007-08-28 15:34PSTYesTMG/AutUSGS34604.60 Unspecified NONE
6442007-08-28 15:33PSTYesTMG/AutUSGS32804.58 Unspecified NONE
6432007-08-28 15:30PSTYesTMG/AutUSGS35804.56 Unspecified NONE
6422007-08-28 15:21PSTYesTMG/AutUSGS36104.49 Unspecified NONE
6412007-08-28 15:19PSTYesTMG/AutUSGS36304.47 Unspecified NONE
6402007-08-28 15:17PSTYesTMG/AutUSGS34404.46 Unspecified NONE
6392007-08-28 15:14PSTYesTMG/AutUSGS33604.44 Unspecified NONE
6382007-08-28 15:12PSTYesTMG/AutUSGS36404.42 Unspecified NONE
6372007-08-28 15:10PSTYesTMG/AutUSGS35404.41 Unspecified NONE
6362007-08-28 15:02PSTYesTMG/AutUSGS37804.35 Unspecified NONE
6352007-08-28 15:00PSTYesTMG/AutUSGS36004.33 Unspecified NONE
6342007-08-28 14:58PSTYesTMG/AutUSGS36704.31 Unspecified NONE
6332007-08-28 14:56PSTYesTMG/AutUSGS34304.29 Unspecified NONE
6322007-08-28 14:42PSTYesTMG/AutUSGS37404.16 Unspecified NONE
6312007-08-28 14:40PSTYesTMG/AutUSGS36304.13 Unspecified NONE
6302007-08-28 14:38PSTYesTMG/AutUSGS35504.11 Unspecified NONE
6292007-08-28 14:35PSTYesTMG/AutUSGS36204.08 Unspecified NONE
6282007-08-28 14:33PSTYesTMG/AutUSGS36804.06 Unspecified NONE
6272007-08-28 14:31PSTYesTMG/AutUSGS37504.04 Unspecified NONE
6262007-08-28 14:30PSTYesTMG/AutUSGS35504.02 Unspecified NONE
6252007-08-28 14:24PSTYesTMG/AutUSGS38903.95 Unspecified NONE
6242007-08-28 14:20PSTYesTMG/AutUSGS36003.89 Unspecified NONE
6232007-08-28 14:16PSTYesTMG/AutUSGS37103.85 Unspecified NONE
6222007-08-28 14:14PSTYesTMG/AutUSGS36803.82 Unspecified NONE
6212007-08-28 14:11PSTYesTMG/AutUSGS38403.79 Unspecified NONE
6202007-08-28 14:10PSTYesTMG/AutUSGS36303.77 Unspecified NONE
6192007-08-28 14:08PSTYesTMG/AutUSGS38603.75 Unspecified NONE
6182007-08-28 14:06PSTYesTMG/AutUSGS34803.72 Unspecified NONE
6172007-08-28 14:04PSTYesTMG/AutUSGS36903.70 Unspecified NONE
6162007-08-28 14:02PSTYesTMG/AutUSGS37503.67 Unspecified NONE
6152007-08-28 13:59PSTYesTMG/AutUSGS38503.65 Unspecified NONE
6142007-08-28 13:57PSTYesTMG/AutUSGS39503.62 Unspecified NONE
6132007-08-28 13:54PSTYesTMG/AutUSGS40603.60 Unspecified NONE
6122007-08-28 13:52PSTYesTMG/AutUSGS36803.59 Unspecified NONE
6112007-08-28 13:50PSTYesTMG/AutUSGS35803.57 Unspecified NONE
6102007-08-28 13:48PSTYesTMG/AutUSGS39603.56 Unspecified NONE
6092007-08-28 13:46PSTYesTMG/AutUSGS38903.54 Unspecified NONE
6082007-08-28 13:38PSTYesTMG/AutUSGS37203.49 Unspecified NONE
6072007-08-28 13:36PSTYesTMG/AutUSGS38503.48 Unspecified NONE
6062007-08-28 13:34PSTYesTMG/AutUSGS41603.47 Unspecified NONE
6052007-08-28 13:32PSTYesTMG/AutUSGS39403.46 Unspecified NONE
6042007-08-28 13:30PSTYesTMG/AutUSGS42403.45 Unspecified NONE
6032007-08-28 13:28PSTYesTMG/AutUSGS38603.45 Unspecified NONE
6022007-08-28 13:25PSTYesTMG/AutUSGS40403.44 Unspecified NONE
6012007-08-28 13:20PSTYesTMG/AutUSGS37703.42 Unspecified NONE
6002007-08-28 13:02PSTYesTMG/AutUSGS39603.37 Unspecified NONE
5992007-08-28 13:01PSTYesTMG/AutUSGS37303.37 Unspecified NONE
5982007-08-28 12:58PSTYesTMG/AutUSGS37203.36 Unspecified NONE
5972007-08-28 12:56PSTYesTMG/AutUSGS38703.36 Unspecified NONE
5962007-08-28 12:49PSTYesTMG/AutUSGS37403.34 Unspecified NONE
5952007-08-28 12:47PSTYesTMG/AutUSGS38003.35 Unspecified NONE
5942007-08-28 12:40PSTYesTMG/AutUSGS38003.36 Unspecified NONE
5932007-08-28 12:38PSTYesTMG/AutUSGS36103.36 Unspecified NONE
5922007-08-28 12:36PSTYesTMG/AutUSGS36303.36 Unspecified NONE
5912007-08-28 12:33PSTYesTMG/AutUSGS37503.36 Unspecified NONE
5902007-08-28 12:24PSTYesTMG/AutUSGS35403.38 Unspecified NONE
5892007-08-28 12:22PSTYesTMG/AutUSGS39103.38 Unspecified NONE
5882007-08-28 12:20PSTYesTMG/AutUSGS34703.39 Unspecified NONE
5872007-08-28 12:18PSTYesTMG/AutUSGS34403.40 Unspecified NONE
5862007-08-28 12:16PSTYesTMG/AutUSGS33603.41 Unspecified NONE
5852007-08-28 12:14PSTYesTMG/AutUSGS33303.42 Unspecified NONE
5842007-08-28 12:12PSTYesTMG/AutUSGS35803.43 Unspecified NONE
5832007-08-28 12:10PSTYesTMG/AutUSGS34203.43 Unspecified NONE
5822007-08-28 12:08PSTYesTMG/AutUSGS37303.44 Unspecified NONE
5812007-08-28 12:06PSTYesTMG/AutUSGS33403.45 Unspecified NONE
5802007-08-28 12:04PSTYesTMG/AutUSGS34003.45 Unspecified NONE
5792007-08-28 12:02PSTYesTMG/AutUSGS36203.46 Unspecified NONE
5782007-08-28 12:00PSTYesTMG/AutUSGS34903.46 Unspecified NONE
5772007-08-28 11:58PSTYesTMG/AutUSGS35603.47 Unspecified NONE
5762007-08-28 11:44PSTYesTMG/AutUSGS32703.54 Unspecified NONE
5752007-08-28 11:42PSTYesTMG/AutUSGS31903.54 Unspecified NONE
5742007-08-28 11:40PSTYesTMG/AutUSGS34303.54 Unspecified NONE
5732007-08-28 11:38PSTYesTMG/AutUSGS32903.55 Unspecified NONE
5722007-08-28 11:32PSTYesTMG/AutUSGS31703.56 Unspecified NONE
5712007-08-28 11:30PSTYesTMG/AutUSGS33603.56 Unspecified NONE
5702007-08-28 11:28PSTYesTMG/AutUSGS33903.57 Unspecified NONE
5692007-08-28 11:26PSTYesTMG/AutUSGS32603.59 Unspecified NONE
5682007-08-28 11:21PSTYesTMG/AutUSGS34503.62 Unspecified NONE
5672007-08-28 11:19PSTYesTMG/AutUSGS32503.63 Unspecified NONE
5662007-08-28 11:17PSTYesTMG/AutUSGS33603.64 Unspecified NONE
5652007-08-28 11:15PSTYesTMG/AutUSGS34703.64 Unspecified NONE
5642007-08-28 11:14PSTYesTMG/AutUSGS31903.65 Unspecified NONE
5632007-08-28 11:12PSTYesTMG/AutUSGS32203.66 Unspecified NONE
5622007-08-28 10:59PSTYesTMG/AutUSGS31403.73 Unspecified NONE
5612007-08-28 10:57PSTYesTMG/AutUSGS31603.75 Unspecified NONE
5602007-08-28 10:55PSTYesTMG/AutUSGS32103.76 Unspecified NONE
5592007-08-28 10:53PSTYesTMG/AutUSGS32603.78 Unspecified NONE
5582007-08-28 10:51PSTYesTMG/AutUSGS31703.79 Unspecified NONE
5572007-08-28 10:49PSTYesTMG/AutUSGS30703.80 Unspecified NONE
5562007-08-28 10:42PSTYesTMG/AutUSGS32303.83 Unspecified NONE
5552007-08-28 10:40PSTYesTMG/AutUSGS31303.84 Unspecified NONE
5542007-08-28 10:39PSTYesTMG/AutUSGS31903.85 Unspecified NONE
5532007-08-28 10:37PSTYesTMG/AutUSGS31103.85 Unspecified NONE
5522007-08-28 10:35PSTYesTMG/AutUSGS32403.85 Unspecified NONE
5512007-08-28 10:33PSTYesTMG/AutUSGS35103.86 Unspecified NONE
5502007-08-28 10:31PSTYesTMG/AutUSGS32003.88 Unspecified NONE
5492007-08-28 10:29PSTYesTMG/AutUSGS32203.89 Unspecified NONE
5482007-08-28 10:28PSTYesTMG/AutUSGS29403.90 Unspecified NONE
5472007-08-28 10:26PSTYesTMG/AutUSGS31303.91 Unspecified NONE
5462007-08-28 10:24PSTYesTMG/AutUSGS32003.92 Unspecified NONE
5452007-08-28 10:22PSTYesTMG/AutUSGS31603.94 Unspecified NONE
5442007-08-28 10:20PSTYesTMG/AutUSGS31403.95 Unspecified NONE
5432007-08-28 10:18PSTYesTMG/AutUSGS31603.96 Unspecified NONE
5422007-08-28 10:17PSTYesTMG/AutUSGS32103.97 Unspecified NONE
5412007-08-28 10:15PSTYesTMG/AutUSGS32203.98 Unspecified NONE
5402007-08-28 10:06PSTYesTMG/AutUSGS30104.05 Unspecified NONE
5392007-08-28 10:04PSTYesTMG/AutUSGS30304.06 Unspecified NONE
5382007-08-28 10:02PSTYesTMG/AutUSGS30504.07 Unspecified NONE
5372007-08-28 10:00PSTYesTMG/AutUSGS31304.08 Unspecified NONE
5362007-08-28 09:59PSTYesTMG/AutUSGS29004.09 Unspecified NONE
5352007-08-28 09:57PSTYesTMG/AutUSGS29904.10 Unspecified NONE
5342007-08-28 09:53PSTYesTMG/AutUSGS30004.12 Unspecified NONE
5332007-08-28 09:51PSTYesTMG/AutUSGS31804.14 Unspecified NONE
5322007-08-28 09:48PSTYesTMG/AutUSGS28604.16 Unspecified NONE
5312007-08-28 09:46PSTYesTMG/AutUSGS28904.18 Unspecified NONE
5302007-08-28 09:43PSTYesTMG/AutUSGS31304.20 Unspecified NONE
5292007-08-28 09:41PSTYesTMG/AutUSGS30404.21 Unspecified NONE
5282007-08-28 09:39PSTYesTMG/AutUSGS28004.22 Unspecified NONE
5272007-08-28 09:37PSTYesTMG/AutUSGS29404.24 Unspecified NONE
5262007-08-28 09:35PSTYesTMG/AutUSGS30504.26 Unspecified NONE
5252007-08-28 09:32PSTYesTMG/AutUSGS28804.26 Unspecified NONE
5242007-08-28 09:30PSTYesTMG/AutUSGS29804.28 Unspecified NONE
5232007-08-28 09:28PSTYesTMG/AutUSGS29604.29 Unspecified NONE
5222007-08-28 09:25PSTYesTMG/AutUSGS30104.31 Unspecified NONE
5212007-08-28 09:23PSTYesTMG/AutUSGS28904.33 Unspecified NONE
5202007-08-28 09:21PSTYesTMG/AutUSGS31104.34 Unspecified NONE
5192007-08-28 09:19PSTYesTMG/AutUSGS30104.36 Unspecified NONE
5182007-08-28 09:17PSTYesTMG/AutUSGS30104.38 Unspecified NONE
5172007-08-28 09:14PSTYesTMG/AutUSGS28704.40 Unspecified NONE
5162007-08-28 09:12PSTYesTMG/AutUSGS27104.41 Unspecified NONE
5152007-08-28 09:10PSTYesTMG/AutUSGS27704.43 Unspecified NONE
5142007-08-28 09:08PSTYesTMG/AutUSGS29504.45 Unspecified NONE
5132007-08-28 09:06PSTYesTMG/AutUSGS28504.47 Unspecified NONE
5122007-08-28 09:04PSTYesTMG/AutUSGS29504.49 Unspecified NONE
5112007-08-28 09:02PSTYesTMG/AutUSGS28804.51 Unspecified NONE
5102007-08-28 09:00PSTYesTMG/AutUSGS29304.53 Unspecified NONE
5092007-08-28 08:58PSTYesTMG/AutUSGS29204.54 Unspecified NONE
5082007-08-28 08:50PSTYesTMG/AutUSGS26904.59 Unspecified NONE
5072007-08-28 08:48PSTYesTMG/AutUSGS27704.60 Unspecified NONE
5062007-08-28 08:46PSTYesTMG/AutUSGS27304.61 Unspecified NONE
5052007-08-28 08:44PSTYesTMG/AutUSGS29404.63 Unspecified NONE
5042007-08-28 08:40PSTYesTMG/AutUSGS27404.66 Unspecified NONE
5032007-08-28 08:38PSTYesTMG/AutUSGS27604.67 Unspecified NONE
5022007-08-28 08:36PSTYesTMG/AutUSGS27804.69 Unspecified NONE
5012007-08-28 08:34PSTYesTMG/AutUSGS29604.70 Unspecified NONE
5002007-08-28 08:32PSTYesTMG/AutUSGS29704.72 Unspecified NONE
4992007-08-28 08:30PSTYesTMG/AutUSGS26904.73 Unspecified NONE
4982007-08-28 08:28PSTYesTMG/AutUSGS28404.75 Unspecified NONE
4972007-08-28 08:26PSTYesTMG/AutUSGS26104.76 Unspecified NONE
4962007-08-28 08:23PSTYesTMG/AutUSGS27304.78 Unspecified NONE
4952007-08-28 08:22PSTYesTMG/AutUSGS29004.80 Unspecified NONE
4942007-08-28 08:10PSTYesTMG/AutUSGS26504.90 Unspecified NONE
4932007-08-28 08:08PSTYesTMG/AutUSGS26304.91 Unspecified NONE
4922007-08-28 08:04PSTYesTMG/AutUSGS25904.94 Unspecified NONE
4912007-08-28 08:02PSTYesTMG/AutUSGS24004.96 Unspecified NONE
4902007-05-08 15:00PSTYes???USGS25203.43 Unspecified NONE
4892007-05-08 14:58PSTYes???USGS26403.45 Unspecified NONE
4882007-05-08 14:30PSTYes???USGS23903.62 Unspecified NONE
4872007-05-08 14:28PSTYes???USGS25303.63 Unspecified NONE
4862007-05-08 14:02PSTYes???USGS23203.78 Unspecified NONE
4852007-05-08 13:59PSTYes???USGS24503.80 Unspecified NONE
4842007-05-08 13:33PSTYes???USGS22903.97 Unspecified NONE
4832007-05-08 13:30PSTYes???USGS22703.99 Unspecified NONE
4822007-05-08 13:03PSTYes???USGS21604.15 Unspecified NONE
4812007-05-08 13:00PSTYes???USGS21704.16 Unspecified NONE
4802007-05-08 12:32PSTYes???USGS20004.34 Unspecified NONE
4792007-05-08 12:30PSTYes???USGS20004.35 Unspecified NONE
4782007-05-08 12:00PSTYes???USGS18904.54 Unspecified NONE
4772007-05-08 11:57PSTYes???USGS18004.56 Unspecified NONE
4762007-05-08 11:29PSTYes???USGS17504.75 Unspecified NONE
4752007-05-08 11:26PSTYes???USGS17604.77 Unspecified NONE
4742007-05-08 10:59PSTYes???USGS14604.93 Unspecified NONE
4732007-05-08 10:56PSTYes???USGS14404.95 Unspecified NONE
4722007-05-08 10:28PSTYes???USGS14005.11 Unspecified NONE
4712007-05-08 10:26PSTYes???USGS13905.13 Unspecified NONE
4702007-05-08 09:46PSTYes???USGS13505.33 Unspecified NONE
4692007-05-08 09:44PSTYes???USGS13305.34 Unspecified NONE
4682006-03-07 14:16PSTYes???USGS1160010.86 Unspecified NONE
4672006-03-07 14:12PSTYes???USGS1150010.86 Unspecified NONE
4662006-03-07 14:08PSTYes???USGS1210010.87 Unspecified NONE
4652006-03-07 14:03PSTYes???USGS1180010.88 Unspecified NONE
4642006-03-07 13:57PSTYes???USGS1190010.88 Unspecified NONE
4632006-03-07 13:53PSTYes???USGS1180010.89 Unspecified NONE
4622006-02-23 16:41PSTYes???USGS46205.56 Unspecified NONE
4612006-02-23 16:38PSTYes???USGS47105.58 Unspecified NONE
4602006-02-23 11:19PSTYes???USGS44706.56 Unspecified NONE
4592006-02-23 11:14PSTYes???USGS45306.55 Unspecified NONE
4582006-02-23 11:10PSTYes???USGS44106.54 Unspecified NONE
4572006-02-23 11:06PSTYes???USGS45906.53 Unspecified NONE
4562006-01-19 11:59PSTYes???USGS1150010.29 Unspecified NONE
4552006-01-19 11:56PSTYes???USGS1120010.29 Unspecified NONE
4542006-01-19 11:52PSTYes???USGS1160010.30 Unspecified NONE
4532006-01-19 11:48PSTYes???USGS1150010.30 Unspecified NONE
4522006-01-19 11:44PSTYes???USGS1190010.30 Unspecified NONE
4512006-01-19 11:40PSTYes???USGS1120010.31 Unspecified NONE
4502005-12-29 16:22PSTYes???USGS1420013.37 Unspecified NONE
4492005-12-29 16:19PSTYes???USGS1440013.38 Unspecified NONE
4482005-12-29 16:16PSTYes???USGS1430013.39 Unspecified NONE
4472005-12-29 16:13PSTYes???USGS1480013.39 Unspecified NONE
4462005-12-06 12:50PSTYes???USGS36904.86 Unspecified NONE
4452005-12-06 12:47PSTYes???USGS35204.87 Unspecified NONE
4442005-12-06 12:44PSTYes???USGS37104.88 Unspecified NONE
4432005-12-06 12:40PSTYes???USGS36604.90 Unspecified NONE
4422005-12-06 11:52PSTYes???USGS35605.07 Unspecified NONE
4412005-12-06 11:49PSTYes???USGS35505.08 Unspecified NONE
4402005-12-06 11:46PSTYes???USGS34705.09 Unspecified NONE
4392005-12-06 11:43PSTYes???USGS35905.10 Unspecified NONE
4382005-12-06 10:58PSTYes???USGS36105.22 Unspecified NONE
4372005-12-06 10:54PSTYes???USGS37305.23 Unspecified NONE
4362005-12-06 10:50PSTYes???USGS38705.24 Unspecified NONE
4352005-12-06 10:46PSTYes???USGS38205.25 Unspecified NONE
4342005-12-06 10:00PSTYes???USGS39305.25 Unspecified NONE
4332005-12-06 09:57PSTYes???USGS42005.25 Unspecified NONE
4322005-12-06 09:53PSTYes???USGS42405.24 Unspecified NONE
4312005-12-06 09:47PSTYes???USGS41505.23 Unspecified NONE
4302005-12-06 08:59PSTYes???USGS45305.08 Unspecified NONE
4292005-12-06 08:56PSTYes???USGS45105.06 Unspecified NONE
4282005-12-06 08:52PSTYes???USGS45205.04 Unspecified NONE
4272005-12-06 08:48PSTYes???USGS47705.02 Unspecified NONE
4262005-12-06 07:52PSTYes???USGS49904.72 Unspecified NONE
4252005-12-06 07:48PSTYes???USGS47604.70 Unspecified NONE
4242005-12-06 07:44PSTYes???USGS52104.68 Unspecified NONE
4232005-12-06 07:40PSTYes???USGS48104.65 Unspecified NONE
4222005-10-12 17:25PSTYes???USGS23804.41 Unspecified NONE
4212005-10-12 17:22PSTYes???USGS23804.43 Unspecified NONE
4202005-10-12 17:18PSTYes???USGS22504.46 Unspecified NONE
4192005-10-12 17:15PSTYes???USGS24004.47 Unspecified NONE
4182005-10-12 17:11PSTYes???USGS22804.49 Unspecified NONE
4172005-10-12 17:08PSTYes???USGS22604.50 Unspecified NONE
4162005-10-12 16:22PSTYes???USGS21404.72 Unspecified NONE
4152005-10-12 16:20PSTYes???USGS21304.73 Unspecified NONE
4142005-10-12 16:17PSTYes???USGS20704.74 Unspecified NONE
4132005-10-12 16:14PSTYes???USGS20804.75 Unspecified NONE
4122005-10-12 15:31PSTYes???USGS18404.92 Unspecified NONE
4112005-10-12 15:28PSTYes???USGS18204.93 Unspecified NONE
4102005-10-12 15:25PSTYes???USGS19104.95 Unspecified NONE
4092005-10-12 15:22PSTYes???USGS16904.96 Unspecified NONE
4082005-10-12 15:19PSTYes???USGS18004.96 Unspecified NONE
4072005-10-12 15:17PSTYes???USGS18204.97 Unspecified NONE
4062005-10-12 14:25PSTYes???USGS21905.16 Unspecified NONE
4052005-10-12 14:22PSTYes???USGS21205.16 Unspecified NONE
4042005-10-12 14:19PSTYes???USGS21405.17 Unspecified NONE
4032005-10-12 14:16PSTYes???USGS23805.18 Unspecified NONE
4022005-10-12 13:16PSTYes???USGS27005.02 Unspecified NONE
4012005-10-12 13:13PSTYes???USGS25405.01 Unspecified NONE
4002005-10-12 13:10PSTYes???USGS28104.99 Unspecified NONE
3992005-10-12 13:07PSTYes???USGS28504.97 Unspecified NONE
3982005-10-12 11:59PSTYes???USGS31204.54 Unspecified NONE
3972005-10-12 11:56PSTYes???USGS31604.51 Unspecified NONE
3962005-10-12 11:53PSTYes???USGS29604.49 Unspecified NONE
3952005-10-12 11:50PSTYes???USGS30504.47 Unspecified NONE
3942005-05-23 17:18PSTYes???USGS1160012.58 Unspecified NONE
3932005-05-23 17:15PSTYes???USGS1170012.57 Unspecified NONE
3922005-05-23 17:12PSTYes???USGS1190012.57 Unspecified NONE
3912005-05-23 17:09PSTYes???USGS1220012.57 Unspecified NONE
3902005-05-23 17:06PSTYes???USGS1220012.56 Unspecified NONE
3892005-05-23 17:03PSTYes???USGS1190012.57 Unspecified NONE
3882004-12-03 13:52PSTYes???USGS17606.09 Unspecified NONE
3872004-12-03 13:47PSTYes???USGS17606.11 Unspecified NONE
3862004-12-03 13:42PSTYes???USGS18006.12 Unspecified NONE
3852004-12-03 13:38PSTYes???USGS17206.13 Unspecified NONE
3842004-02-28 18:12PSTYes???USGS1170011.91 Unspecified NONE
3832004-02-28 18:09PSTYes???USGS1190011.92 Unspecified NONE
3822004-02-28 18:06PSTYes???USGS1200011.92 Unspecified NONE
3812004-02-28 18:03PSTYes???USGS1250011.93 Unspecified NONE
3802004-02-28 17:59PSTYes???USGS1230011.93 Unspecified NONE
3792004-02-28 17:54PSTYes???USGS1240011.93 Unspecified NONE
3782003-10-01 15:30PSTYes???USGS31005.93 Unspecified NONE
3772003-10-01 15:27PSTYes???USGS29405.92 Unspecified NONE
3762003-10-01 15:23PSTYes???USGS28605.91 Unspecified NONE
3752003-10-01 15:20PSTYes???USGS28705.89 Unspecified NONE
3742003-10-01 14:41PSTYes???USGS24605.86 Unspecified NONE
3732003-10-01 14:35PSTYes???USGS24805.87 Unspecified NONE
3722003-10-01 14:31PSTYes???USGS24705.87 Unspecified NONE
3712003-10-01 14:28PSTYes???USGS26605.89 Unspecified NONE
3702003-10-01 13:50PSTYes???USGS24106.00 Unspecified NONE
3692003-10-01 13:46PSTYes???USGS22706.01 Unspecified NONE
3682003-10-01 13:43PSTYes???USGS23006.03 Unspecified NONE
3672003-10-01 13:05PSTYes???USGS22706.19 Unspecified NONE
3662003-10-01 13:02PSTYes???USGS20306.20 Unspecified NONE
3652003-10-01 12:58PSTYes???USGS22106.21 Unspecified NONE
3642003-10-01 12:54PSTYes???USGS21306.23 Unspecified NONE
3632003-10-01 12:19PSTYes???USGS19206.38 Unspecified NONE
3622003-10-01 12:15PSTYes???USGS21106.39 Unspecified NONE
3612003-10-01 12:11PSTYes???USGS20506.41 Unspecified NONE
3602003-10-01 12:07PSTYes???USGS18806.42 Unspecified NONE
3592003-10-01 11:40PSTYes???USGS21006.53 Unspecified NONE
3582003-10-01 11:37PSTYes???USGS18506.54 Unspecified NONE
3572003-10-01 11:12PSTYes???USGS19806.63 Unspecified NONE
3562003-10-01 11:08PSTYes???USGS19506.64 Unspecified NONE
3552003-10-01 10:08PSTYes???USGS24806.74 Unspecified NONE
3542003-10-01 10:05PSTYes???USGS24506.74 Unspecified NONE
3532003-10-01 10:02PSTYes???USGS25606.74 Unspecified NONE
3522003-10-01 09:59PSTYes???USGS25506.73 Unspecified NONE
3512003-10-01 09:20PSTYes???USGS26006.61 Unspecified NONE
3502003-10-01 09:17PSTYes???USGS27506.59 Unspecified NONE
3492003-10-01 09:14PSTYes???USGS27806.58 Unspecified NONE
3482003-10-01 09:11PSTYes???USGS27606.56 Unspecified NONE
3472003-10-01 08:05PSTYes???USGS27806.20 Unspecified NONE
3462003-10-01 08:02PSTYes???USGS32006.17 Unspecified NONE
3452003-10-01 07:58PSTYes???USGS32306.15 Unspecified NONE
3442003-10-01 07:54PSTYes???USGS31806.15 Unspecified NONE
3432003-10-01 07:12PSTYes???USGS32505.85 Unspecified NONE
3422003-10-01 07:08PSTYes???USGS30105.82 Unspecified NONE
3412003-10-01 07:05PSTYes???USGS29205.80 Unspecified NONE
3402003-10-01 07:01PSTYes???USGS30805.78 Unspecified NONE
3392003-10-01 06:08PSTYes???USGS33305.32 Unspecified NONE
3382003-10-01 06:03PSTYes???USGS34805.28 Unspecified NONE
3372003-10-01 05:58PSTYes???USGS34405.24 Unspecified NONE
3362003-10-01 05:54PSTYes???USGS33705.21 Unspecified NONE
3352003-05-20 13:00PSTYes???USGS53607.21 Unspecified NONE
3342003-05-20 12:57PSTYes???USGS51507.24 Unspecified NONE
3332003-05-20 12:53PSTYes???USGS52707.26 Unspecified NONE
3322003-05-20 12:49PSTYes???USGS55607.27 Unspecified NONE
3312003-05-20 12:46PSTYes???USGS54207.28 Unspecified NONE
3302003-05-20 12:42PSTYes???USGS53207.30 Unspecified NONE
3292003-05-20 12:38PSTYes???USGS55907.33 Unspecified NONE
3282003-05-20 12:34PSTYes???USGS50607.34 Unspecified NONE
3272003-05-20 12:28PSTYes???USGS52607.37 Unspecified NONE
3262003-05-20 12:23PSTYes???USGS51907.41 Unspecified NONE
3252003-05-20 12:19PSTYes???USGS51507.43 Unspecified NONE
3242003-05-20 12:14PSTYes???USGS52707.46 Unspecified NONE
3232003-05-20 12:02PSTYes???USGS50907.52 Unspecified NONE
3222003-05-20 11:50PSTYes???USGS51707.58 Unspecified NONE
3212003-05-20 11:45PSTYes???USGS53707.62 Unspecified NONE
3202003-05-20 11:40PSTYes???USGS52407.64 Unspecified NONE
3192003-05-20 11:35PSTYes???USGS51007.67 Unspecified NONE
3182003-05-20 11:29PSTYes???USGS50107.71 Unspecified NONE
3172003-05-20 11:19PSTYes???USGS51007.75 Unspecified NONE
3162003-05-20 11:15PSTYes???USGS48907.78 Unspecified NONE
3152003-05-14 10:37PSTYes???USGS73107.90 Unspecified NONE
3142003-05-14 10:34PSTYes???USGS69107.91 Unspecified NONE
3132003-05-14 10:31PSTYes???USGS70507.91 Unspecified NONE
3122003-05-14 10:28PSTYes???USGS69407.92 Unspecified NONE
3112003-05-14 10:25PSTYes???USGS72407.93 Unspecified NONE
3102003-05-14 10:21PSTYes???USGS71107.95 Unspecified NONE
3092003-05-14 10:17PSTYes???USGS72407.95 Unspecified NONE
3082003-05-14 10:13PSTYes???USGS68707.96 Unspecified NONE
3072003-05-14 10:10PSTYes???USGS69307.97 Unspecified NONE
3062003-05-14 10:06PSTYes???USGS69208.00 Unspecified NONE
3052003-05-14 10:02PSTYes???USGS65108.01 Unspecified NONE
3042003-05-14 09:58PSTYes???USGS70608.02 Unspecified NONE
3032003-05-14 09:55PSTYes???USGS70808.02 Unspecified NONE
3022003-05-14 09:51PSTYes???USGS67508.03 Unspecified NONE
3012003-05-14 09:28PSTYes???USGS68208.13 Unspecified NONE
3002003-05-14 09:24PSTYes???USGS64908.15 Unspecified NONE
2992003-05-14 09:20PSTYes???USGS68108.17 Unspecified NONE
2982003-05-14 09:16PSTYes???USGS66408.19 Unspecified NONE
2972003-05-14 09:13PSTYes???USGS63708.20 Unspecified NONE
2962003-05-14 09:09PSTYes???USGS68308.22 Unspecified NONE
2952003-05-14 09:05PSTYes???USGS66908.24 Unspecified NONE
2942003-05-14 09:01PSTYes???USGS69308.26 Unspecified NONE
2932003-05-14 08:57PSTYes???USGS69208.27 Unspecified NONE
2922003-05-14 08:53PSTYes???USGS70708.29 Unspecified NONE
2912003-05-14 08:50PSTYes???USGS68108.31 Unspecified NONE
2902003-05-14 08:45PSTYes???USGS69008.33 Unspecified NONE
2892003-05-14 08:41PSTYes???USGS68808.33 Unspecified NONE
2882003-05-13 12:00PSTYes???USGS81908.47 Unspecified NONE
2872003-05-13 11:56PSTYes???USGS83008.46 Unspecified NONE
2862003-05-13 11:52PSTYes???USGS81608.44 Unspecified NONE
2852003-05-13 11:49PSTYes???USGS81008.41 Unspecified NONE
2842003-05-13 11:45PSTYes???USGS80808.40 Unspecified NONE
2832003-05-13 11:41PSTYes???USGS84508.39 Unspecified NONE
2822003-05-13 11:38PSTYes???USGS83408.38 Unspecified NONE
2812003-05-13 11:34PSTYes???USGS83208.37 Unspecified NONE
2802003-05-13 11:10PSTYes???USGS86708.31 Unspecified NONE
2792003-05-13 11:06PSTYes???USGS84008.29 Unspecified NONE
2782003-05-13 11:03PSTYes???USGS81408.28 Unspecified NONE
2772003-05-13 10:59PSTYes???USGS85708.27 Unspecified NONE
2762003-05-13 10:55PSTYes???USGS81408.27 Unspecified NONE
2752003-05-13 10:52PSTYes???USGS84408.27 Unspecified NONE
2742003-05-13 10:48PSTYes???USGS82708.27 Unspecified NONE
2732003-05-13 10:45PSTYes???USGS82808.26 Unspecified NONE
2722003-05-13 10:42PSTYes???USGS83308.27 Unspecified NONE
2712003-05-13 10:38PSTYes???USGS84208.27 Unspecified NONE
2702003-05-13 10:34PSTYes???USGS82908.27 Unspecified NONE
2692003-05-13 10:30PSTYes???USGS83008.27 Unspecified NONE
2682003-05-13 10:26PSTYes???USGS83008.26 Unspecified NONE
2672003-05-13 10:22PSTYes???USGS85008.27 Unspecified NONE
2662003-05-13 10:18PSTYes???USGS80008.28 Unspecified NONE
2652003-05-13 10:13PSTYes???USGS85008.28 Unspecified NONE
2642003-05-13 10:09PSTYes???USGS81108.28 Unspecified NONE
2632003-05-13 10:04PSTYes???USGS76708.30 Unspecified NONE
2622003-05-13 09:59PSTYes???USGS80108.31 Unspecified NONE
2612003-02-06 14:52PSTYes???USGS57607.13 Unspecified NONE
2602003-02-06 14:48PSTYes???USGS59907.13 Unspecified NONE
2592003-02-06 14:40PSTYes???USGS56207.16 Unspecified NONE
2582003-02-06 14:36PSTYes???USGS58207.16 Unspecified NONE
2572003-02-06 14:29PSTYes???USGS58607.18 Unspecified NONE
2562003-02-06 14:25PSTYes???USGS55907.19 Unspecified NONE
2552003-02-06 14:21PSTYes???USGS56407.20 Unspecified NONE
2542003-02-06 14:16PSTYes???USGS57207.22 Unspecified NONE
2532003-02-06 14:05PSTYes???USGS56007.25 Unspecified NONE
2522003-02-06 14:01PSTYes???USGS56607.27 Unspecified NONE
2512003-02-06 13:57PSTYes???USGS54607.28 Unspecified NONE
2502003-02-06 13:53PSTYes???USGS55207.30 Unspecified NONE
2492003-02-06 13:49PSTYes???USGS54107.31 Unspecified NONE
2482003-02-06 13:45PSTYes???USGS55507.33 Unspecified NONE
2472003-02-06 13:41PSTYes???USGS53507.35 Unspecified NONE
2462003-02-06 13:37PSTYes???USGS56207.36 Unspecified NONE
2452003-02-06 13:32PSTYes???USGS56007.37 Unspecified NONE
2442003-02-06 13:23PSTYes???USGS53707.40 Unspecified NONE
2432003-02-04 11:17PSTYes???USGS60808.00 Unspecified NONE
2422003-02-04 11:13PSTYes???USGS61308.01 Unspecified NONE
2412003-02-04 11:08PSTYes???USGS61408.03 Unspecified NONE
2402003-02-04 11:05PSTYes???USGS60408.04 Unspecified NONE
2392003-02-04 10:46PSTYes???USGS59508.10 Unspecified NONE
2382003-02-04 10:42PSTYes???USGS63008.11 Unspecified NONE
2372003-02-04 10:38PSTYes???USGS57108.12 Unspecified NONE
2362003-02-04 10:27PSTYes???USGS58108.15 Unspecified NONE
2352003-02-04 10:23PSTYes???USGS60708.16 Unspecified NONE
2342003-02-04 10:01PSTYes???USGS59108.24 Unspecified NONE
2332003-02-04 09:57PSTYes???USGS58808.26 Unspecified NONE
2322003-02-04 09:53PSTYes???USGS59908.27 Unspecified NONE
2312003-02-04 09:49PSTYes???USGS57808.29 Unspecified NONE
2302003-02-04 09:44PSTYes???USGS62008.30 Unspecified NONE
2292002-10-11 16:51PSTYes???USGS20906.23 Unspecified NONE
2282002-10-11 16:47PSTYes???USGS21606.20 Unspecified NONE
2272002-10-11 16:43PSTYes???USGS20306.16 Unspecified NONE
2262002-10-11 16:31PSTYes???USGS21006.04 Unspecified NONE
2252002-10-11 16:28PSTYes???USGS22306.00 Unspecified NONE
2242002-10-11 16:24PSTYes???USGS22105.96 Unspecified NONE
2232002-10-11 16:21PSTYes???USGS22505.92 Unspecified NONE
2222002-10-11 16:17PSTYes???USGS23205.90 Unspecified NONE
2212002-10-11 16:14PSTYes???USGS23505.87 Unspecified NONE
2202002-10-11 16:10PSTYes???USGS23605.83 Unspecified NONE
2192002-10-11 16:00PSTYes???USGS22905.76 Unspecified NONE
2182002-10-11 15:56PSTYes???USGS24905.74 Unspecified NONE
2172002-10-11 15:52PSTYes???USGS25305.72 Unspecified NONE
2162002-10-11 15:48PSTYes???USGS24805.69 Unspecified NONE
2152002-10-11 15:39PSTYes???USGS25205.66 Unspecified NONE
2142002-10-11 15:34PSTYes???USGS25805.63 Unspecified NONE
2132002-10-11 15:30PSTYes???USGS25405.61 Unspecified NONE
2122002-10-11 15:25PSTYes???USGS25405.60 Unspecified NONE
2112002-10-11 15:21PSTYes???USGS23905.59 Unspecified NONE
2102002-10-11 15:17PSTYes???USGS24205.58 Unspecified NONE
2092002-10-11 15:09PSTYes???USGS22905.57 Unspecified NONE
2082002-10-11 15:02PSTYes???USGS24605.56 Unspecified NONE
2072002-10-11 14:50PSTYes???USGS21405.54 Unspecified NONE
2062002-10-11 14:47PSTYes???USGS23405.54 Unspecified NONE
2052002-10-11 14:43PSTYes???USGS21505.55 Unspecified NONE
2042002-10-11 14:39PSTYes???USGS21905.55 Unspecified NONE
2032002-10-11 14:35PSTYes???USGS20905.56 Unspecified NONE
2022002-10-11 14:32PSTYes???USGS21305.57 Unspecified NONE
2012002-10-11 14:29PSTYes???USGS21805.58 Unspecified NONE
2002002-10-11 14:21PSTYes???USGS21205.59 Unspecified NONE
1992002-10-11 14:17PSTYes???USGS20805.60 Unspecified NONE
1982002-10-11 14:14PSTYes???USGS20005.61 Unspecified NONE
1972002-10-11 14:10PSTYes???USGS20705.62 Unspecified NONE
1962002-10-11 14:05PSTYes???USGS20105.64 Unspecified NONE
1952002-10-11 14:03PSTYes???USGS20005.65 Unspecified NONE
1942002-10-11 13:56PSTYes???USGS19105.67 Unspecified NONE
1932002-10-11 13:48PSTYes???USGS19805.70 Unspecified NONE
1922002-10-11 13:45PSTYes???USGS19805.71 Unspecified NONE
1912002-10-11 13:30PSTYes???USGS18605.78 Unspecified NONE
1902002-10-11 13:26PSTYes???USGS18505.80 Unspecified NONE
1892002-10-11 13:14PSTYes???USGS17905.85 Unspecified NONE
1882002-10-11 13:11PSTYes???USGS17105.87 Unspecified NONE
1872002-10-11 12:52PSTYes???USGS17105.97 Unspecified NONE
1862002-10-11 12:49PSTYes???USGS18005.98 Unspecified NONE
1852002-10-11 12:46PSTYes???USGS16806.00 Unspecified NONE
1842002-10-11 12:37PSTYes???USGS16306.05 Unspecified NONE
1832002-10-11 12:34PSTYes???USGS16406.07 Unspecified NONE
1822002-10-11 12:30PSTYes???USGS15406.10 Unspecified NONE
1812002-10-11 12:27PSTYes???USGS17006.11 Unspecified NONE
1802002-10-11 12:24PSTYes???USGS17406.13 Unspecified NONE
1792002-10-11 12:20PSTYes???USGS17006.15 Unspecified NONE
1782002-10-11 12:16PSTYes???USGS16206.16 Unspecified NONE
1772002-10-11 11:08PSTYes???USGS12406.47 Unspecified NONE
1762002-10-11 11:04PSTYes???USGS12206.49 Unspecified NONE
1752002-10-11 11:00PSTYes???USGS12706.50 Unspecified NONE
1742002-10-11 10:49PSTYes???USGS12106.55 Unspecified NONE
1732002-10-11 10:46PSTYes???USGS12206.57 Unspecified NONE
1722002-10-11 10:43PSTYes???USGS11806.58 Unspecified NONE
1712002-10-11 10:33PSTYes???USGS13206.63 Unspecified NONE
1702002-10-11 10:29PSTYes???USGS13006.64 Unspecified NONE
1692002-10-11 10:26PSTYes???USGS13306.65 Unspecified NONE
1682002-10-11 10:22PSTYes???USGS14606.66 Unspecified NONE
1672002-10-11 10:19PSTYes???USGS14006.67 Unspecified NONE
1662002-10-11 10:15PSTYes???USGS14106.67 Unspecified NONE
1652002-10-11 10:08PSTYes???USGS15006.69 Unspecified NONE
1642002-10-11 10:03PSTYes???USGS15206.69 Unspecified NONE
1632002-10-11 09:43PSTYes???USGS17206.68 Unspecified NONE
1622002-10-11 09:39PSTYes???USGS18206.68 Unspecified NONE
1612002-10-11 09:35PSTYes???USGS17706.67 Unspecified NONE
1602002-10-11 09:31PSTYes???USGS18106.67 Unspecified NONE
1592002-10-11 09:27PSTYes???USGS18906.66 Unspecified NONE
1582002-10-11 09:24PSTYes???USGS18406.65 Unspecified NONE
1572002-10-11 09:20PSTYes???USGS19306.64 Unspecified NONE
1562002-10-11 09:14PSTYes???USGS20206.61 Unspecified NONE
1552002-10-11 08:58PSTYes???USGS20806.55 Unspecified NONE
1542002-10-11 08:54PSTYes???USGS20706.53 Unspecified NONE
1532002-10-11 08:42PSTYes???USGS20706.48 Unspecified NONE
1522002-10-11 08:32PSTYes???USGS21806.43 Unspecified NONE
1512002-10-11 08:28PSTYes???USGS20906.42 Unspecified NONE
1502002-10-11 08:23PSTYes???USGS23006.39 Unspecified NONE
1492002-10-11 08:19PSTYes???USGS23606.36 Unspecified NONE
1482002-10-11 08:15PSTYes???USGS23106.35 Unspecified NONE
1472002-10-11 08:00PSTYes???USGS24006.26 Unspecified NONE
1462002-10-11 07:56PSTYes???USGS25006.25 Unspecified NONE
1452002-10-11 07:52PSTYes???USGS25006.23 Unspecified NONE
1442002-10-11 07:48PSTYes???USGS24006.20 Unspecified NONE
1432002-10-11 07:44PSTYes???USGS23406.18 Unspecified NONE
1422002-10-11 07:40PSTYes???USGS26706.16 Unspecified NONE
1412002-10-11 07:36PSTYes???USGS25006.14 Unspecified NONE
1402002-10-11 07:29PSTYes???USGS27606.11 Unspecified NONE
1392002-10-11 07:25PSTYes???USGS25406.07 Unspecified NONE
1382002-10-11 07:21PSTYes???USGS24906.06 Unspecified NONE
1372002-10-11 07:14PSTYes???USGS26806.02 Unspecified NONE
1362002-10-11 07:11PSTYes???USGS25905.99 Unspecified NONE
1352002-10-11 07:05PSTYes???USGS25405.96 Unspecified NONE
1342002-10-11 07:01PSTYes???USGS29405.93 Unspecified NONE
1332002-10-11 06:45PSTYes???USGS26805.82 Unspecified NONE
1322002-10-11 06:42PSTYes???USGS27405.79 Unspecified NONE
1312002-10-11 06:36PSTYes???USGS28305.75 Unspecified NONE
1302002-10-11 06:24PSTYes???USGS29305.65 Unspecified NONE
1292002-10-11 06:20PSTYes???USGS29805.60 Unspecified NONE
1282002-10-11 06:16PSTYes???USGS29905.56 Unspecified NONE
1272002-10-11 06:09PSTYes???USGS30605.49 Unspecified NONE
1262002-10-11 06:04PSTYes???USGS29805.45 Unspecified NONE
1252002-10-11 06:00PSTYes???USGS29605.42 Unspecified NONE
1242001-11-08 15:20PSTYes???USGS16105.87 Unspecified NONE
1232001-11-08 15:17PSTYes???USGS15105.88 Unspecified NONE
1222001-11-08 15:14PSTYes???USGS15205.90 Unspecified NONE
1212001-11-08 15:12PSTYes???USGS15405.91 Unspecified NONE
1202001-11-08 15:09PSTYes???USGS15505.93 Unspecified NONE
1192001-11-08 15:05PSTYes???USGS15305.95 Unspecified NONE
1182001-11-08 15:02PSTYes???USGS15805.96 Unspecified NONE
1172001-11-08 15:00PSTYes???USGS14405.97 Unspecified NONE
1162001-11-08 14:56PSTYes???USGS15005.99 Unspecified NONE
1152001-11-08 14:53PSTYes???USGS14506.00 Unspecified NONE
1142001-11-08 14:50PSTYes???USGS15206.02 Unspecified NONE
1132001-11-08 14:47PSTYes???USGS15106.02 Unspecified NONE
1122001-11-08 14:44PSTYes???USGS15006.03 Unspecified NONE
1112001-11-08 14:39PSTYes???USGS14006.06 Unspecified NONE
1102001-11-08 14:36PSTYes???USGS14706.08 Unspecified NONE
1092001-11-08 14:33PSTYes???USGS13706.09 Unspecified NONE
1082001-11-08 14:30PSTYes???USGS13206.10 Unspecified NONE
1072001-11-08 14:26PSTYes???USGS12906.11 Unspecified NONE
1062001-11-08 14:23PSTYes???USGS13606.12 Unspecified NONE
1052001-11-08 14:20PSTYes???USGS12506.14 Unspecified NONE
1042001-11-08 14:17PSTYes???USGS12906.15 Unspecified NONE
1032001-11-08 14:13PSTYes???USGS12406.17 Unspecified NONE
1022001-11-08 14:10PSTYes???USGS12206.18 Unspecified NONE
1012001-11-08 14:07PSTYes???USGS11206.19 Unspecified NONE
1002001-11-08 14:03PSTYes???USGS11706.20 Unspecified NONE
992001-11-08 13:25PSTYes???USGS11206.33 Unspecified NONE
982001-11-08 13:19PSTYes???USGS11106.35 Unspecified NONE
972001-11-08 13:16PSTYes???USGS11706.36 Unspecified NONE
962001-11-08 13:11PSTYes???USGS10606.37 Unspecified NONE
952001-11-08 13:08PSTYes???USGS11306.38 Unspecified NONE
942001-11-08 12:57PSTYes???USGS13206.39 Unspecified NONE
932001-11-08 12:54PSTYes???USGS12106.40 Unspecified NONE
922001-11-08 12:50PSTYes???USGS14806.41 Unspecified NONE
912001-11-08 12:46PSTYes???USGS13906.41 Unspecified NONE
902001-11-08 12:42PSTYes???USGS12906.41 Unspecified NONE
892001-11-08 12:15PSTYes???USGS16906.39 Unspecified NONE
882001-11-08 12:11PSTYes???USGS16106.39 Unspecified NONE
872001-11-08 12:08PSTYes???USGS17606.38 Unspecified NONE
862001-11-08 12:04PSTYes???USGS16206.36 Unspecified NONE
852001-11-08 12:00PSTYes???USGS16606.36 Unspecified NONE
842001-11-08 11:57PSTYes???USGS17906.35 Unspecified NONE
832001-11-08 11:54PSTYes???USGS17106.35 Unspecified NONE
822001-11-08 11:50PSTYes???USGS17506.33 Unspecified NONE
812001-11-08 11:46PSTYes???USGS17806.33 Unspecified NONE
802001-11-08 11:42PSTYes???USGS17706.31 Unspecified NONE
792001-11-08 11:38PSTYes???USGS18706.29 Unspecified NONE
782001-11-08 11:34PSTYes???USGS19206.27 Unspecified NONE
772001-11-08 11:27PSTYes???USGS20506.25 Unspecified NONE
762001-11-08 11:23PSTYes???USGS20306.23 Unspecified NONE
752001-11-08 11:14PSTYes???USGS18806.18 Unspecified NONE
742001-11-08 11:10PSTYes???USGS20506.16 Unspecified NONE
732001-11-08 11:05PSTYes???USGS20006.13 Unspecified NONE
722001-11-08 10:53PSTYes???USGS22106.07 Unspecified NONE
712001-11-08 10:49PSTYes???USGS21406.04 Unspecified NONE
702001-11-08 10:45PSTYes???USGS21506.03 Unspecified NONE
692001-11-08 10:41PSTYes???USGS22206.01 Unspecified NONE
682001-11-08 10:38PSTYes???USGS23305.98 Unspecified NONE
672001-11-08 10:34PSTYes???USGS23105.96 Unspecified NONE
662001-11-08 10:29PSTYes???USGS22605.93 Unspecified NONE
652001-11-08 10:05PSTYes???USGS26505.79 Unspecified NONE
642001-11-08 10:01PSTYes???USGS25305.77 Unspecified NONE
632001-11-08 09:56PSTYes???USGS24705.73 Unspecified NONE
622001-11-08 09:52PSTYes???USGS26405.70 Unspecified NONE
612001-11-08 09:47PSTYes???USGS26405.66 Unspecified NONE
602001-11-08 09:43PSTYes???USGS25505.63 Unspecified NONE
592001-11-08 09:39PSTYes???USGS25105.61 Unspecified NONE
582001-11-08 09:35PSTYes???USGS25505.58 Unspecified NONE
572001-11-08 09:31PSTYes???USGS25505.55 Unspecified NONE
562001-11-08 09:27PSTYes???USGS26405.52 Unspecified NONE
552001-11-08 09:23PSTYes???USGS27605.49 Unspecified NONE
542001-11-08 09:19PSTYes???USGS28105.45 Unspecified NONE
532001-11-08 09:14PSTYes???USGS28505.41 Unspecified NONE
522001-11-08 08:43PSTYes???USGS27605.14 Unspecified NONE
512001-11-08 08:39PSTYes???USGS27205.10 Unspecified NONE
502001-11-08 08:34PSTYes???USGS28705.07 Unspecified NONE
492001-11-08 08:29PSTYes???USGS28305.03 Unspecified NONE
482001-11-08 08:24PSTYes???USGS27804.99 Unspecified NONE
472001-11-08 08:20PSTYes???USGS28504.95 Unspecified NONE
462001-11-08 08:15PSTYes???USGS29804.92 Unspecified NONE
452001-11-08 08:10PSTYes???USGS30204.90 Unspecified NONE
442001-11-08 08:05PSTYes???USGS28604.86 Unspecified NONE
432001-11-08 08:02PSTYes???USGS28004.83 Unspecified NONE
422001-11-06 15:57PSTYes???USGS25106.58 Unspecified NONE
412001-11-06 15:54PSTYes???USGS24606.56 Unspecified NONE
402001-11-06 15:52PSTYes???USGS24806.53 Unspecified NONE
392001-11-06 15:49PSTYes???USGS26106.51 Unspecified NONE
382001-11-06 15:46PSTYes???USGS25506.50 Unspecified NONE
372001-11-06 15:43PSTYes???USGS25306.48 Unspecified NONE
362001-11-06 15:41PSTYes???USGS25906.46 Unspecified NONE
352001-11-06 15:16PSTYes???USGS24606.31 Unspecified NONE
342001-11-06 15:13PSTYes???USGS26206.30 Unspecified NONE
332001-11-06 15:10PSTYes???USGS25206.28 Unspecified NONE
322001-11-06 15:07PSTYes???USGS24506.27 Unspecified NONE
312001-11-06 15:04PSTYes???USGS24906.27 Unspecified NONE
302001-11-06 15:01PSTYes???USGS25106.26 Unspecified NONE
292001-11-06 14:58PSTYes???USGS24606.25 Unspecified NONE
282001-11-06 14:55PSTYes???USGS24206.24 Unspecified NONE
272001-11-06 14:53PSTYes???USGS24706.24 Unspecified NONE
262001-11-06 14:50PSTYes???USGS23806.23 Unspecified NONE
252001-11-06 14:47PSTYes???USGS23406.22 Unspecified NONE
242001-11-06 14:44PSTYes???USGS24306.22 Unspecified NONE
232001-11-06 14:41PSTYes???USGS24406.22 Unspecified NONE
222001-11-06 14:38PSTYes???USGS23806.22 Unspecified NONE
212001-11-06 14:36PSTYes???USGS23606.22 Unspecified NONE
202001-11-06 14:32PSTYes???USGS25306.21 Unspecified NONE
192001-11-06 14:29PSTYes???USGS24306.20 Unspecified NONE
182001-11-06 14:25PSTYes???USGS23206.21 Unspecified NONE
172001-11-06 14:21PSTYes???USGS21806.20 Unspecified NONE
162001-11-06 14:18PSTYes???USGS22606.21 Unspecified NONE
152001-11-06 14:14PSTYes???USGS21706.21 Unspecified NONE
142001-11-06 14:11PSTYes???USGS22606.21 Unspecified NONE
132001-11-06 14:08PSTYes???USGS21606.21 Unspecified NONE
122001-11-06 14:05PSTYes???USGS21006.21 Unspecified NONE
112001-11-06 14:02PSTYes???USGS20806.22 Unspecified NONE
102001-11-06 13:58PSTYes???USGS21206.23 Unspecified NONE
92001-11-06 13:55PSTYes???USGS20306.24 Unspecified NONE
82001-11-06 13:52PSTYes???USGS20706.25 Unspecified NONE
72001-11-06 13:49PSTYes???USGS20606.26 Unspecified NONE
62001-11-06 13:46PSTYes???USGS20406.27 Unspecified NONE
52001-11-06 13:42PSTYes???USGS19706.27 Unspecified NONE
42001-11-06 13:37PSTYes???USGS20506.28 Unspecified NONE
32001-11-06 13:33PSTYes???USGS18106.29 Unspecified NONE
22001-11-06 13:29PSTYes???USGS18306.31 Unspecified NONE
12001-11-06 13:25PSTYes???USGS18306.32 Unspecified NONE